Wetterdaten: Montag, 09.12.2019
Datum Zeit Temp. Aussen Temp. o. S. Temp +5cm Feuchte Auss Luftdruck Regen Sonnenschein Regendauer Solar Windben Empfang
09.12.2019 00:00 6,8 C 6,1 C 5,0 C 89 % 999,8 hPa 0,0 l/m 0 min 0 min 0 W/m 19,3 km/h (3 Bft) 100,00 %
09.12.2019 00:02 6,8 C 6,1 C 5,0 C 89 % 999,6 hPa 0,0 l/m 0 min 0 min 0 W/m 12,9 km/h (3 Bft) 100,00 %
09.12.2019 00:04 6,8 C 6,1 C 5,0 C 88 % 999,6 hPa 0,0 l/m 0 min 0 min 0 W/m 12,9 km/h (3 Bft) 100,00 %
09.12.2019 00:08 6,8 C 6,1 C 5,0 C 88 % 999,6 hPa 0,0 l/m 0 min 0 min 0 W/m 25,7 km/h (4 Bft) 98,78 %
09.12.2019 00:10 6,8 C 6,1 C 5,0 C 88 % 999,6 hPa 0,0 l/m 0 min 0 min 0 W/m 19,3 km/h (3 Bft) 100,00 %
09.12.2019 00:12 6,8 C 6,1 C 5,0 C 88 % 999,7 hPa 0,0 l/m 0 min 0 min 0 W/m 35,4 km/h (5 Bft) 100,00 %
09.12.2019 00:14 6,8 C 6,1 C 5,0 C 88 % 999,7 hPa 0,0 l/m 0 min 0 min 0 W/m 32,2 km/h (5 Bft) 100,00 %
09.12.2019 00:16 6,8 C 6,1 C 5,0 C 88 % 999,6 hPa 0,0 l/m 0 min 0 min 0 W/m 12,9 km/h (3 Bft) 94,29 %
09.12.2019 00:18 6,8 C 6,1 C 5,0 C 88 % 999,5 hPa 0,0 l/m 0 min 0 min 0 W/m 22,5 km/h (4 Bft) 98,11 %
09.12.2019 00:20 6,8 C 6,1 C 5,0 C 88 % 999,6 hPa 0,0 l/m 0 min 0 min 0 W/m 12,9 km/h (3 Bft) 98,00 %
09.12.2019 00:22 6,8 C 6,1 C 5,0 C 88 % 999,6 hPa 0,0 l/m 0 min 0 min 0 W/m 16,1 km/h (3 Bft) 100,00 %
09.12.2019 00:24 6,8 C 6,1 C 5,0 C 88 % 999,5 hPa 0,0 l/m 0 min 0 min 0 W/m 29,0 km/h (5 Bft) 100,00 %
09.12.2019 00:26 6,8 C 6,1 C 5,0 C 88 % 999,7 hPa 0,0 l/m 0 min 0 min 0 W/m 22,5 km/h (4 Bft) 100,00 %
09.12.2019 00:28 6,8 C 6,1 C 5,0 C 88 % 999,5 hPa 0,0 l/m 0 min 0 min 0 W/m 32,2 km/h (5 Bft) 100,00 %
09.12.2019 00:30 6,9 C 6,1 C 5,0 C 88 % 999,5 hPa 0,0 l/m 0 min 0 min 0 W/m 29,0 km/h (5 Bft) 100,00 %
09.12.2019 00:32 6,9 C 6,1 C 5,0 C 88 % 999,5 hPa 0,0 l/m 0 min 0 min 0 W/m 25,7 km/h (4 Bft) 97,96 %
09.12.2019 00:34 6,9 C 6,1 C 5,0 C 88 % 999,5 hPa 0,0 l/m 0 min 0 min 0 W/m 19,3 km/h (3 Bft) 100,00 %
09.12.2019 00:36 6,9 C 6,1 C 5,0 C 88 % 999,5 hPa 0,0 l/m 0 min 0 min 0 W/m 19,3 km/h (3 Bft) 100,00 %
09.12.2019 00:38 6,9 C 6,1 C 5,0 C 88 % 999,3 hPa 0,0 l/m 0 min 0 min 0 W/m 19,3 km/h (3 Bft) 100,00 %
09.12.2019 00:40 6,9 C 6,1 C 5,0 C 88 % 999,4 hPa 0,0 l/m 0 min 0 min 0 W/m 6,4 km/h (2 Bft) 100,00 %
09.12.2019 00:42 6,9 C 6,1 C 5,0 C 88 % 999,5 hPa 0,0 l/m 0 min 0 min 0 W/m 22,5 km/h (4 Bft) 100,00 %
09.12.2019 00:44 6,9 C 6,1 C 5,6 C 88 % 999,3 hPa 0,0 l/m 0 min 0 min 0 W/m 29,0 km/h (5 Bft) 100,00 %
09.12.2019 00:46 6,9 C 6,1 C 5,6 C 88 % 999,5 hPa 0,0 l/m 0 min 0 min 0 W/m 25,7 km/h (4 Bft) 98,11 %
09.12.2019 00:48 6,9 C 6,1 C 5,6 C 88 % 999,4 hPa 0,0 l/m 0 min 0 min 0 W/m 38,6 km/h (5 Bft) 100,00 %
09.12.2019 00:50 6,9 C 6,1 C 5,6 C 88 % 999,3 hPa 0,0 l/m 0 min 0 min 0 W/m 25,7 km/h (4 Bft) 100,00 %
09.12.2019 00:52 6,9 C 6,1 C 5,6 C 88 % 999,3 hPa 0,0 l/m 0 min 0 min 0 W/m 12,9 km/h (3 Bft) 97,14 %
09.12.2019 00:54 6,9 C 6,1 C 5,6 C 88 % 999,2 hPa 0,0 l/m 0 min 0 min 0 W/m 25,7 km/h (4 Bft) 100,00 %
09.12.2019 00:56 6,9 C 6,1 C 5,6 C 88 % 999,1 hPa 0,0 l/m 0 min 0 min 0 W/m 22,5 km/h (4 Bft) 100,00 %
09.12.2019 00:58 6,9 C 6,1 C 5,6 C 88 % 999,1 hPa 0,0 l/m 0 min 0 min 0 W/m 16,1 km/h (3 Bft) 100,00 %
09.12.2019 01:00 6,9 C 6,1 C 5,6 C 88 % 999,1 hPa 0,0 l/m 0 min 0 min 0 W/m 22,5 km/h (4 Bft) 100,00 %
09.12.2019 01:02 6,9 C 6,1 C 5,6 C 88 % 999,1 hPa 0,0 l/m 0 min 0 min 0 W/m 29,0 km/h (5 Bft) 100,00 %
09.12.2019 01:04 6,9 C 6,1 C 5,6 C 88 % 999,0 hPa 0,0 l/m 0 min 0 min 0 W/m 19,3 km/h (3 Bft) 97,87 %
09.12.2019 01:06 6,9 C 6,1 C 5,6 C 88 % 999,1 hPa 0,0 l/m 0 min 0 min 0 W/m 25,7 km/h (4 Bft) 100,00 %
09.12.2019 01:08 6,9 C 6,1 C 5,6 C 88 % 999,0 hPa 0,0 l/m 0 min 0 min 0 W/m 16,1 km/h (3 Bft) 100,00 %
09.12.2019 01:10 6,9 C 6,1 C 5,6 C 88 % 998,9 hPa 0,0 l/m 0 min 0 min 0 W/m 22,5 km/h (4 Bft) 97,96 %
09.12.2019 01:12 6,9 C 6,1 C 5,6 C 88 % 999,0 hPa 0,0 l/m 0 min 0 min 0 W/m 19,3 km/h (3 Bft) 100,00 %
09.12.2019 01:14 7,0 C 6,7 C 5,6 C 88 % 998,9 hPa 0,0 l/m 0 min 0 min 0 W/m 29,0 km/h (5 Bft) 97,87 %
09.12.2019 01:16 7,0 C 6,7 C 6,1 C 88 % 998,9 hPa 0,0 l/m 0 min 0 min 0 W/m 22,5 km/h (4 Bft) 98,11 %
09.12.2019 01:18 7,1 C 6,7 C 6,1 C 88 % 998,9 hPa 0,0 l/m 0 min 0 min 0 W/m 22,5 km/h (4 Bft) 98,00 %
09.12.2019 01:20 7,1 C 6,7 C 6,1 C 87 % 999,0 hPa 0,0 l/m 0 min 0 min 0 W/m 25,7 km/h (4 Bft) 95,92 %
09.12.2019 01:22 7,1 C 6,7 C 6,1 C 87 % 999,0 hPa 0,0 l/m 0 min 2 min 0 W/m 29,0 km/h (5 Bft) 100,00 %
09.12.2019 01:24 7,1 C 6,7 C 6,1 C 87 % 999,2 hPa 0,0 l/m 0 min 0 min 0 W/m 32,2 km/h (5 Bft) 96,23 %
09.12.2019 01:26 7,2 C 6,7 C 6,1 C 87 % 999,0 hPa 0,0 l/m 0 min 0 min 0 W/m 22,5 km/h (4 Bft) 98,00 %
09.12.2019 01:28 7,2 C 6,7 C 6,1 C 87 % 999,0 hPa 0,0 l/m 0 min 0 min 0 W/m 29,0 km/h (5 Bft) 97,96 %
09.12.2019 01:30 7,2 C 6,7 C 6,1 C 87 % 999,1 hPa 0,0 l/m 0 min 0 min 0 W/m 32,2 km/h (5 Bft) 97,22 %
09.12.2019 01:32 7,3 C 6,7 C 6,1 C 87 % 998,9 hPa 0,0 l/m 0 min 0 min 0 W/m 29,0 km/h (5 Bft) 98,11 %
09.12.2019 01:34 7,3 C 6,7 C 6,1 C 87 % 999,0 hPa 0,0 l/m 0 min 0 min 0 W/m 22,5 km/h (4 Bft) 98,00 %
09.12.2019 01:36 7,3 C 6,7 C 6,1 C 87 % 999,0 hPa 0,0 l/m 0 min 2 min 0 W/m 25,7 km/h (4 Bft) 97,83 %
09.12.2019 01:38 7,3 C 6,7 C 6,1 C 87 % 999,0 hPa 0,0 l/m 0 min 0 min 0 W/m 22,5 km/h (4 Bft) 98,00 %
09.12.2019 01:40 7,3 C 6,7 C 6,1 C 87 % 999,0 hPa 0,0 l/m 0 min 0 min 0 W/m 29,0 km/h (5 Bft) 95,65 %
09.12.2019 01:42 7,4 C 6,7 C 6,1 C 86 % 998,9 hPa 0,0 l/m 0 min 0 min 0 W/m 41,8 km/h (6 Bft) 93,62 %
09.12.2019 01:44 7,4 C 6,7 C 6,1 C 86 % 998,9 hPa 0,0 l/m 0 min 0 min 0 W/m 19,3 km/h (3 Bft) 97,14 %
09.12.2019 01:46 7,4 C 6,7 C 6,1 C 86 % 999,0 hPa 0,0 l/m 0 min 0 min 0 W/m 29,0 km/h (5 Bft) 94,44 %
09.12.2019 01:48 7,4 C 7,2 C 6,1 C 86 % 998,9 hPa 0,0 l/m 0 min 0 min 0 W/m 38,6 km/h (5 Bft) 95,92 %
09.12.2019 01:50 7,5 C 6,7 C 6,1 C 86 % 998,8 hPa 0,0 l/m 0 min 0 min 0 W/m 19,3 km/h (3 Bft) 92,00 %
09.12.2019 01:52 7,5 C 6,7 C 6,1 C 86 % 998,8 hPa 0,0 l/m 0 min 0 min 0 W/m 32,2 km/h (5 Bft) 94,29 %
09.12.2019 01:54 7,5 C 6,7 C 6,1 C 86 % 998,8 hPa 0,0 l/m 0 min 0 min 0 W/m 45,1 km/h (6 Bft) 92,45 %
09.12.2019 01:56 7,5 C 6,7 C 6,1 C 86 % 998,9 hPa 0,0 l/m 0 min 0 min 0 W/m 22,5 km/h (4 Bft) 96,00 %
09.12.2019 01:58 7,5 C 6,7 C 6,1 C 86 % 998,8 hPa 0,0 l/m 0 min 0 min 0 W/m 19,3 km/h (3 Bft) 95,92 %
09.12.2019 02:00 7,6 C 6,7 C 6,1 C 86 % 998,7 hPa 0,0 l/m 0 min 0 min 0 W/m 25,7 km/h (4 Bft) 93,62 %
09.12.2019 02:02 7,6 C 6,7 C 6,1 C 86 % 998,8 hPa 0,0 l/m 0 min 0 min 0 W/m 16,1 km/h (3 Bft) 97,14 %
09.12.2019 02:04 7,6 C 7,2 C 6,1 C 86 % 998,8 hPa 0,0 l/m 0 min 0 min 0 W/m 29,0 km/h (5 Bft) 94,34 %
09.12.2019 02:06 7,6 C 7,2 C 6,1 C 86 % 998,7 hPa 0,0 l/m 0 min 0 min 0 W/m 25,7 km/h (4 Bft) 96,00 %
09.12.2019 02:08 7,6 C 7,2 C 6,7 C 86 % 998,7 hPa 0,0 l/m 0 min 0 min 0 W/m 35,4 km/h (5 Bft) 95,92 %
09.12.2019 02:10 7,6 C 7,2 C 6,7 C 86 % 998,7 hPa 0,0 l/m 0 min 0 min 0 W/m 19,3 km/h (3 Bft) 95,74 %
09.12.2019 02:12 7,6 C 7,2 C 6,7 C 86 % 998,7 hPa 0,0 l/m 0 min 0 min 0 W/m 29,0 km/h (5 Bft) 97,14 %
09.12.2019 02:14 7,6 C 7,2 C 6,7 C 86 % 998,6 hPa 0,0 l/m 0 min 0 min 0 W/m 29,0 km/h (5 Bft) 98,11 %
09.12.2019 02:16 7,6 C 7,2 C 6,1 C 85 % 998,7 hPa 0,0 l/m 0 min 0 min 0 W/m 22,5 km/h (4 Bft) 96,00 %
09.12.2019 02:18 7,7 C 7,2 C 6,7 C 85 % 998,8 hPa 0,0 l/m 0 min 0 min 0 W/m 25,7 km/h (4 Bft) 91,84 %
09.12.2019 02:20 7,7 C 7,2 C 6,7 C 85 % 998,6 hPa 0,0 l/m 0 min 0 min 0 W/m 32,2 km/h (5 Bft) 97,14 %
09.12.2019 02:22 7,7 C 7,2 C 6,7 C 85 % 998,6 hPa 0,0 l/m 0 min 0 min 0 W/m 35,4 km/h (5 Bft) 93,62 %
09.12.2019 02:24 7,7 C 7,2 C 6,7 C 85 % 998,6 hPa 0,0 l/m 0 min 0 min 0 W/m 12,9 km/h (3 Bft) 98,11 %
09.12.2019 02:26 7,7 C 7,2 C 6,7 C 85 % 998,7 hPa 0,0 l/m 0 min 0 min 0 W/m 35,4 km/h (5 Bft) 96,00 %
09.12.2019 02:28 7,7 C 7,2 C 6,7 C 85 % 998,7 hPa 0,0 l/m 0 min 0 min 0 W/m 22,5 km/h (4 Bft) 93,88 %
09.12.2019 02:30 7,7 C 7,2 C 6,7 C 85 % 998,7 hPa 0,0 l/m 0 min 0 min 0 W/m 25,7 km/h (4 Bft) 100,00 %
09.12.2019 02:32 7,7 C 7,2 C 6,7 C 85 % 998,6 hPa 0,0 l/m 0 min 0 min 0 W/m 22,5 km/h (4 Bft) 95,74 %
09.12.2019 02:34 7,7 C 7,2 C 6,7 C 85 % 998,6 hPa 0,0 l/m 0 min 0 min 0 W/m 22,5 km/h (4 Bft) 97,87 %
09.12.2019 02:36 7,7 C 7,2 C 6,7 C 85 % 998,7 hPa 0,0 l/m 0 min 0 min 0 W/m 25,7 km/h (4 Bft) 97,87 %
09.12.2019 02:38 7,7 C 7,2 C 6,7 C 85 % 998,5 hPa 0,0 l/m 0 min 0 min 0 W/m 16,1 km/h (3 Bft) 94,34 %
09.12.2019 02:40 7,7 C 7,2 C 6,7 C 85 % 998,6 hPa 0,0 l/m 0 min 0 min 0 W/m 19,3 km/h (3 Bft) 98,00 %
09.12.2019 02:42 7,7 C 7,2 C 6,7 C 85 % 998,6 hPa 0,0 l/m 0 min 0 min 0 W/m 29,0 km/h (5 Bft) 97,96 %
09.12.2019 02:44 7,8 C 7,2 C 6,7 C 85 % 998,6 hPa 0,0 l/m 0 min 0 min 0 W/m 29,0 km/h (5 Bft) 94,29 %
09.12.2019 02:46 7,8 C 7,2 C 6,7 C 85 % 998,6 hPa 0,0 l/m 0 min 0 min 0 W/m 22,5 km/h (4 Bft) 98,11 %
09.12.2019 02:48 7,8 C 7,2 C 6,7 C 85 % 998,6 hPa 0,0 l/m 0 min 0 min 0 W/m 25,7 km/h (4 Bft) 97,87 %
09.12.2019 02:50 7,8 C 7,2 C 6,7 C 85 % 998,4 hPa 0,0 l/m 0 min 0 min 0 W/m 22,5 km/h (4 Bft) 98,00 %
09.12.2019 02:52 7,8 C 7,2 C 6,7 C 84 % 998,4 hPa 0,0 l/m 0 min 0 min 0 W/m 38,6 km/h (5 Bft) 97,96 %
09.12.2019 02:54 7,8 C 7,2 C 6,7 C 84 % 998,4 hPa 0,0 l/m 0 min 0 min 0 W/m 29,0 km/h (5 Bft) 97,14 %
09.12.2019 02:56 7,8 C 7,2 C 6,7 C 84 % 998,2 hPa 0,0 l/m 0 min 0 min 0 W/m 25,7 km/h (4 Bft) 100,00 %
09.12.2019 02:58 7,8 C 7,2 C 6,7 C 84 % 998,2 hPa 0,0 l/m 0 min 0 min 0 W/m 25,7 km/h (4 Bft) 100,00 %
09.12.2019 03:00 7,8 C 7,2 C 6,7 C 84 % 998,2 hPa 0,0 l/m 0 min 0 min 0 W/m 35,4 km/h (5 Bft) 97,87 %
09.12.2019 03:02 7,8 C 7,2 C 6,7 C 84 % 998,1 hPa 0,0 l/m 0 min 0 min 0 W/m 25,7 km/h (4 Bft) 100,00 %
09.12.2019 03:04 7,8 C 7,2 C 6,7 C 84 % 998,1 hPa 0,0 l/m 0 min 0 min 0 W/m 25,7 km/h (4 Bft) 100,00 %
09.12.2019 03:06 7,8 C 7,2 C 6,7 C 84 % 998,0 hPa 0,0 l/m 0 min 0 min 0 W/m 29,0 km/h (5 Bft) 100,00 %
09.12.2019 03:08 7,8 C 7,2 C 6,7 C 84 % 998,1 hPa 0,0 l/m 0 min 0 min 0 W/m 19,3 km/h (3 Bft) 95,92 %
09.12.2019 03:10 7,8 C 7,2 C 6,7 C 84 % 998,1 hPa 0,0 l/m 0 min 0 min 0 W/m 38,6 km/h (5 Bft) 97,87 %
09.12.2019 03:12 7,8 C 7,2 C 6,7 C 84 % 998,1 hPa 0,0 l/m 0 min 0 min 0 W/m 22,5 km/h (4 Bft) 100,00 %
09.12.2019 03:14 7,8 C 7,2 C 6,7 C 84 % 997,9 hPa 0,0 l/m 0 min 0 min 0 W/m 25,7 km/h (4 Bft) 100,00 %
09.12.2019 03:16 7,8 C 7,2 C 6,7 C 84 % 998,0 hPa 0,0 l/m 0 min 0 min 0 W/m 25,7 km/h (4 Bft) 100,00 %
09.12.2019 03:18 7,8 C 7,2 C 6,1 C 84 % 997,9 hPa 0,0 l/m 0 min 0 min 0 W/m 22,5 km/h (4 Bft) 100,00 %
09.12.2019 03:20 7,8 C 7,2 C 6,1 C 84 % 998,1 hPa 0,0 l/m 0 min 0 min 0 W/m 22,5 km/h (4 Bft) 100,00 %
09.12.2019 03:22 7,8 C 7,2 C 6,1 C 84 % 997,9 hPa 0,0 l/m 0 min 0 min 0 W/m 51,5 km/h (7 Bft) 100,00 %
09.12.2019 03:24 7,8 C 7,2 C 6,1 C 83 % 997,9 hPa 0,0 l/m 0 min 0 min 0 W/m 25,7 km/h (4 Bft) 100,00 %
09.12.2019 03:26 7,8 C 6,7 C 6,1 C 83 % 997,8 hPa 0,0 l/m 0 min 0 min 0 W/m 19,3 km/h (3 Bft) 100,00 %
09.12.2019 03:28 7,7 C 6,7 C 6,1 C 83 % 997,8 hPa 0,0 l/m 0 min 0 min 0 W/m 35,4 km/h (5 Bft) 100,00 %
09.12.2019 03:30 7,7 C 6,7 C 6,1 C 83 % 997,8 hPa 0,0 l/m 0 min 0 min 0 W/m 19,3 km/h (3 Bft) 100,00 %
09.12.2019 03:32 7,7 C 6,7 C 6,1 C 83 % 997,7 hPa 0,0 l/m 0 min 0 min 0 W/m 32,2 km/h (5 Bft) 100,00 %
09.12.2019 03:34 7,7 C 7,2 C 6,1 C 84 % 997,8 hPa 0,0 l/m 0 min 0 min 0 W/m 29,0 km/h (5 Bft) 100,00 %
09.12.2019 03:36 7,7 C 6,7 C 6,1 C 83 % 997,7 hPa 0,0 l/m 0 min 0 min 0 W/m 19,3 km/h (3 Bft) 100,00 %
09.12.2019 03:38 7,7 C 7,2 C 6,1 C 83 % 997,7 hPa 0,0 l/m 0 min 0 min 0 W/m 29,0 km/h (5 Bft) 100,00 %
09.12.2019 03:40 7,7 C 7,2 C 6,1 C 83 % 997,6 hPa 0,0 l/m 0 min 0 min 0 W/m 16,1 km/h (3 Bft) 97,87 %
09.12.2019 03:42 7,7 C 7,2 C 6,1 C 83 % 997,6 hPa 0,0 l/m 0 min 0 min 0 W/m 25,7 km/h (4 Bft) 100,00 %
09.12.2019 03:44 7,7 C 7,2 C 6,1 C 83 % 997,6 hPa 0,0 l/m 0 min 0 min 0 W/m 16,1 km/h (3 Bft) 100,00 %
09.12.2019 03:46 7,7 C 7,2 C 6,1 C 83 % 997,6 hPa 0,0 l/m 0 min 0 min 0 W/m 22,5 km/h (4 Bft) 100,00 %
09.12.2019 03:48 7,7 C 7,2 C 6,7 C 83 % 997,5 hPa 0,0 l/m 0 min 0 min 0 W/m 29,0 km/h (5 Bft) 97,96 %
09.12.2019 03:50 7,7 C 7,2 C 6,7 C 83 % 997,5 hPa 0,0 l/m 0 min 0 min 0 W/m 25,7 km/h (4 Bft) 97,22 %
09.12.2019 03:52 7,7 C 7,2 C 6,7 C 83 % 997,4 hPa 0,0 l/m 0 min 0 min 0 W/m 29,0 km/h (5 Bft) 98,11 %
09.12.2019 03:54 7,7 C 7,2 C 6,7 C 83 % 997,4 hPa 0,0 l/m 0 min 0 min 0 W/m 22,5 km/h (4 Bft) 100,00 %
09.12.2019 03:56 7,7 C 7,2 C 6,7 C 83 % 997,4 hPa 0,0 l/m 0 min 0 min 0 W/m 38,6 km/h (5 Bft) 100,00 %
09.12.2019 03:58 7,7 C 7,2 C 6,7 C 83 % 997,3 hPa 0,0 l/m 0 min 0 min 0 W/m 16,1 km/h (3 Bft) 100,00 %
09.12.2019 04:00 7,7 C 7,2 C 6,7 C 83 % 997,3 hPa 0,0 l/m 0 min 0 min 0 W/m 12,9 km/h (3 Bft) 98,11 %
09.12.2019 04:02 7,8 C 7,2 C 6,7 C 83 % 997,3 hPa 0,0 l/m 0 min 0 min 0 W/m 25,7 km/h (4 Bft) 100,00 %
09.12.2019 04:04 7,8 C 7,2 C 6,7 C 83 % 997,3 hPa 0,0 l/m 0 min 0 min 0 W/m 22,5 km/h (4 Bft) 97,96 %
09.12.2019 04:06 7,8 C 7,2 C 6,7 C 83 % 997,3 hPa 0,0 l/m 0 min 0 min 0 W/m 32,2 km/h (5 Bft) 97,14 %
09.12.2019 04:08 7,8 C 7,2 C 6,7 C 83 % 997,2 hPa 0,0 l/m 0 min 0 min 0 W/m 25,7 km/h (4 Bft) 97,87 %
09.12.2019 04:10 7,8 C 7,2 C 6,7 C 83 % 997,2 hPa 0,0 l/m 0 min 0 min 0 W/m 6,4 km/h (2 Bft) 96,23 %
09.12.2019 04:12 7,8 C 6,7 C 6,1 C 83 % 997,1 hPa 0,0 l/m 0 min 0 min 0 W/m 12,9 km/h (3 Bft) 96,00 %
09.12.2019 04:14 7,8 C 7,2 C 6,7 C 83 % 997,4 hPa 0,0 l/m 0 min 0 min 0 W/m 25,7 km/h (4 Bft) 97,96 %
09.12.2019 04:16 7,8 C 7,2 C 6,7 C 83 % 997,2 hPa 0,0 l/m 0 min 0 min 0 W/m 29,0 km/h (5 Bft) 97,14 %
09.12.2019 04:18 7,8 C 7,2 C 6,7 C 82 % 997,1 hPa 0,0 l/m 0 min 0 min 0 W/m 25,7 km/h (4 Bft) 98,15 %
09.12.2019 04:20 7,8 C 7,2 C 6,7 C 82 % 997,1 hPa 0,0 l/m 0 min 0 min 0 W/m 32,2 km/h (5 Bft) 93,88 %
09.12.2019 04:22 7,8 C 7,2 C 6,7 C 82 % 997,1 hPa 0,0 l/m 0 min 0 min 0 W/m 41,8 km/h (6 Bft) 95,92 %
09.12.2019 04:24 7,8 C 7,2 C 6,7 C 82 % 997,0 hPa 0,0 l/m 0 min 0 min 0 W/m 29,0 km/h (5 Bft) 94,44 %
09.12.2019 04:26 7,8 C 7,2 C 6,7 C 82 % 996,9 hPa 0,0 l/m 0 min 0 min 0 W/m 29,0 km/h (5 Bft) 95,65 %
09.12.2019 04:28 7,8 C 7,2 C 6,7 C 82 % 996,9 hPa 0,0 l/m 0 min 0 min 0 W/m 29,0 km/h (5 Bft) 95,74 %
09.12.2019 04:30 7,8 C 7,2 C 6,7 C 82 % 996,9 hPa 0,0 l/m 0 min 0 min 0 W/m 35,4 km/h (5 Bft) 96,23 %
09.12.2019 04:32 7,8 C 7,2 C 6,7 C 81 % 996,8 hPa 0,0 l/m 0 min 0 min 0 W/m 29,0 km/h (5 Bft) 96,00 %
09.12.2019 04:34 7,8 C 7,2 C 6,7 C 81 % 996,6 hPa 0,0 l/m 0 min 0 min 0 W/m 41,8 km/h (6 Bft) 95,74 %
09.12.2019 04:36 7,8 C 7,2 C 6,1 C 81 % 996,8 hPa 0,0 l/m 0 min 0 min 0 W/m 22,5 km/h (4 Bft) 93,62 %
09.12.2019 04:38 7,8 C 6,7 C 6,1 C 81 % 996,6 hPa 0,0 l/m 0 min 0 min 0 W/m 25,7 km/h (4 Bft) 93,88 %
09.12.2019 04:40 7,8 C 6,7 C 6,1 C 81 % 996,6 hPa 0,0 l/m 0 min 0 min 0 W/m 25,7 km/h (4 Bft) 94,29 %
09.12.2019 04:42 7,7 C 6,7 C 6,1 C 81 % 996,6 hPa 0,0 l/m 0 min 0 min 0 W/m 9,7 km/h (2 Bft) 94,34 %
09.12.2019 04:44 7,7 C 6,7 C 6,1 C 81 % 996,6 hPa 0,0 l/m 0 min 0 min 0 W/m 38,6 km/h (5 Bft) 96,00 %
09.12.2019 04:46 7,7 C 7,2 C 6,1 C 81 % 996,6 hPa 0,0 l/m 0 min 0 min 0 W/m 12,9 km/h (3 Bft) 97,96 %
09.12.2019 04:48 7,7 C 7,2 C 6,1 C 81 % 996,5 hPa 0,0 l/m 0 min 0 min 0 W/m 35,4 km/h (5 Bft) 97,87 %
09.12.2019 04:50 7,7 C 7,2 C 6,7 C 81 % 996,6 hPa 0,0 l/m 0 min 0 min 0 W/m 38,6 km/h (5 Bft) 97,14 %
09.12.2019 04:52 7,7 C 7,2 C 6,7 C 81 % 996,5 hPa 0,0 l/m 0 min 0 min 0 W/m 25,7 km/h (4 Bft) 98,15 %
09.12.2019 04:54 7,7 C 7,2 C 6,7 C 81 % 996,4 hPa 0,0 l/m 0 min 0 min 0 W/m 22,5 km/h (4 Bft) 95,92 %
09.12.2019 04:56 7,7 C 7,2 C 6,1 C 81 % 996,4 hPa 0,0 l/m 0 min 0 min 0 W/m 29,0 km/h (5 Bft) 97,96 %
09.12.2019 04:58 7,7 C 6,7 C 6,1 C 81 % 996,4 hPa 0,0 l/m 0 min 0 min 0 W/m 29,0 km/h (5 Bft) 97,22 %
09.12.2019 05:00 7,7 C 6,7 C 6,1 C 81 % 996,5 hPa 0,0 l/m 0 min 0 min 0 W/m 16,1 km/h (3 Bft) 97,83 %
09.12.2019 05:02 7,7 C 6,7 C 6,1 C 81 % 996,4 hPa 0,0 l/m 0 min 0 min 0 W/m 19,3 km/h (3 Bft) 100,00 %
09.12.2019 05:04 7,7 C 6,7 C 6,1 C 81 % 996,5 hPa 0,0 l/m 0 min 0 min 0 W/m 22,5 km/h (4 Bft) 97,87 %
09.12.2019 05:06 7,7 C 6,7 C 6,1 C 81 % 996,3 hPa 0,0 l/m 0 min 0 min 0 W/m 19,3 km/h (3 Bft) 100,00 %
09.12.2019 05:08 7,7 C 6,7 C 6,1 C 81 % 996,3 hPa 0,0 l/m 0 min 0 min 0 W/m 22,5 km/h (4 Bft) 100,00 %
09.12.2019 05:10 7,7 C 6,7 C 6,1 C 81 % 996,3 hPa 0,0 l/m 0 min 0 min 0 W/m 25,7 km/h (4 Bft) 100,00 %
09.12.2019 05:12 7,7 C 6,7 C 6,1 C 81 % 996,4 hPa 0,0 l/m 0 min 0 min 0 W/m 38,6 km/h (5 Bft) 97,96 %
09.12.2019 05:14 7,7 C 6,7 C 6,1 C 81 % 996,4 hPa 0,0 l/m 0 min 0 min 0 W/m 9,7 km/h (2 Bft) 100,00 %
09.12.2019 05:16 7,7 C 6,7 C 6,1 C 81 % 996,4 hPa 0,0 l/m 0 min 0 min 0 W/m 25,7 km/h (4 Bft) 100,00 %
09.12.2019 05:18 7,6 C 6,7 C 6,1 C 81 % 996,3 hPa 0,0 l/m 0 min 0 min 0 W/m 25,7 km/h (4 Bft) 100,00 %
09.12.2019 05:20 7,6 C 6,7 C 6,1 C 82 % 996,3 hPa 0,0 l/m 0 min 0 min 0 W/m 25,7 km/h (4 Bft) 100,00 %
09.12.2019 05:22 7,6 C 6,7 C 6,1 C 82 % 996,3 hPa 0,0 l/m 0 min 0 min 0 W/m 29,0 km/h (5 Bft) 97,96 %
09.12.2019 05:24 7,6 C 6,7 C 6,1 C 82 % 996,3 hPa 0,0 l/m 0 min 0 min 0 W/m 25,7 km/h (4 Bft) 100,00 %
09.12.2019 05:26 7,6 C 6,7 C 6,1 C 82 % 996,3 hPa 0,0 l/m 0 min 0 min 0 W/m 29,0 km/h (5 Bft) 98,15 %
09.12.2019 05:28 7,6 C 6,7 C 6,1 C 82 % 996,3 hPa 0,0 l/m 0 min 0 min 0 W/m 29,0 km/h (5 Bft) 97,96 %
09.12.2019 05:30 7,6 C 6,7 C 6,1 C 82 % 996,2 hPa 0,0 l/m 0 min 0 min 0 W/m 25,7 km/h (4 Bft) 98,00 %
09.12.2019 05:32 7,6 C 6,7 C 6,1 C 82 % 996,1 hPa 0,0 l/m 0 min 0 min 0 W/m 19,3 km/h (3 Bft) 97,14 %
09.12.2019 05:34 7,6 C 6,7 C 6,1 C 82 % 996,1 hPa 0,0 l/m 0 min 0 min 0 W/m 12,9 km/h (3 Bft) 48,72 %
09.12.2019 05:36 7,6 C 6,7 C 6,1 C 82 % 996,0 hPa 0,0 l/m 0 min 0 min 0 W/m 29,0 km/h (5 Bft) 96,23 %
09.12.2019 05:38 7,6 C 6,7 C 6,1 C 82 % 995,9 hPa 0,0 l/m 0 min 0 min 0 W/m 29,0 km/h (5 Bft) 98,00 %
09.12.2019 05:40 7,6 C 6,7 C 6,1 C 82 % 996,0 hPa 0,0 l/m 0 min 0 min 0 W/m 22,5 km/h (4 Bft) 97,83 %
09.12.2019 05:42 7,6 C 6,7 C 6,1 C 82 % 995,9 hPa 0,0 l/m 0 min 0 min 0 W/m 29,0 km/h (5 Bft) 98,00 %
09.12.2019 05:44 7,6 C 6,7 C 6,1 C 82 % 995,9 hPa 0,0 l/m 0 min 0 min 0 W/m 25,7 km/h (4 Bft) 97,14 %
09.12.2019 05:46 7,6 C 6,7 C 6,1 C 82 % 995,8 hPa 0,0 l/m 0 min 0 min 0 W/m 16,1 km/h (3 Bft) 97,87 %
09.12.2019 05:48 7,5 C 6,7 C 6,1 C 82 % 995,9 hPa 0,0 l/m 0 min 0 min 0 W/m 29,0 km/h (5 Bft) 96,23 %
09.12.2019 05:50 7,5 C 6,7 C 6,1 C 83 % 995,9 hPa 0,0 l/m 0 min 0 min 0 W/m 19,3 km/h (3 Bft) 97,96 %
09.12.2019 05:52 7,5 C 6,7 C 6,1 C 83 % 995,9 hPa 0,0 l/m 0 min 0 min 0 W/m 32,2 km/h (5 Bft) 97,87 %
09.12.2019 05:54 7,4 C 6,7 C 6,1 C 83 % 995,9 hPa 0,0 l/m 0 min 0 min 0 W/m 25,7 km/h (4 Bft) 95,74 %
09.12.2019 05:56 7,4 C 6,7 C 6,1 C 83 % 995,9 hPa 0,0 l/m 0 min 0 min 0 W/m 22,5 km/h (4 Bft) 95,92 %
09.12.2019 05:58 7,4 C 6,7 C 6,1 C 83 % 996,0 hPa 0,0 l/m 0 min 0 min 0 W/m 19,3 km/h (3 Bft) 100,00 %
09.12.2019 06:00 7,4 C 6,7 C 6,1 C 83 % 995,8 hPa 0,0 l/m 0 min 0 min 0 W/m 32,2 km/h (5 Bft) 97,87 %
09.12.2019 06:02 7,5 C 6,7 C 6,1 C 83 % 995,9 hPa 0,0 l/m 0 min 0 min 0 W/m 35,4 km/h (5 Bft) 94,44 %
09.12.2019 06:04 7,5 C 6,7 C 6,1 C 83 % 995,9 hPa 0,0 l/m 0 min 0 min 0 W/m 32,2 km/h (5 Bft) 97,96 %
09.12.2019 06:08 7,5 C 6,7 C 6,1 C 83 % 995,7 hPa 0,0 l/m 0 min 0 min 0 W/m 45,1 km/h (6 Bft) 97,87 %
09.12.2019 06:10 7,5 C 6,7 C 6,1 C 83 % 995,8 hPa 0,0 l/m 0 min 0 min 0 W/m 25,7 km/h (4 Bft) 97,96 %
09.12.2019 06:12 7,6 C 6,7 C 6,1 C 83 % 995,7 hPa 0,0 l/m 0 min 0 min 0 W/m 12,9 km/h (3 Bft) 97,14 %
09.12.2019 06:14 7,6 C 6,7 C 6,1 C 83 % 995,7 hPa 0,0 l/m 0 min 0 min 0 W/m 19,3 km/h (3 Bft) 96,30 %
09.12.2019 06:16 7,6 C 6,7 C 6,1 C 83 % 995,7 hPa 0,0 l/m 0 min 0 min 0 W/m 19,3 km/h (3 Bft) 97,96 %
09.12.2019 06:18 7,6 C 6,7 C 6,1 C 83 % 995,9 hPa 0,0 l/m 0 min 0 min 0 W/m 29,0 km/h (5 Bft) 97,96 %
09.12.2019 06:20 7,6 C 6,7 C 6,1 C 83 % 995,5 hPa 0,0 l/m 0 min 0 min 0 W/m 41,8 km/h (6 Bft) 97,22 %
09.12.2019 06:22 7,6 C 6,7 C 6,1 C 84 % 995,6 hPa 0,0 l/m 0 min 0 min 0 W/m 32,2 km/h (5 Bft) 98,11 %
09.12.2019 06:24 7,6 C 6,7 C 6,1 C 83 % 995,5 hPa 0,0 l/m 0 min 2 min 0 W/m 32,2 km/h (5 Bft) 98,00 %
09.12.2019 06:26 7,6 C 6,7 C 6,1 C 84 % 995,5 hPa 0,0 l/m 0 min 0 min 0 W/m 29,0 km/h (5 Bft) 95,92 %
09.12.2019 06:28 7,6 C 6,7 C 6,1 C 84 % 995,5 hPa 0,0 l/m 0 min 2 min 0 W/m 25,7 km/h (4 Bft) 100,00 %
09.12.2019 06:30 7,5 C 6,7 C 6,1 C 84 % 995,4 hPa 0,0 l/m 0 min 2 min 0 W/m 22,5 km/h (4 Bft) 97,14 %
09.12.2019 06:32 7,5 C 6,7 C 6,1 C 84 % 995,4 hPa 0,0 l/m 0 min 2 min 0 W/m 22,5 km/h (4 Bft) 97,87 %
09.12.2019 06:34 7,5 C 6,7 C 5,6 C 84 % 995,4 hPa 0,0 l/m 0 min 2 min 0 W/m 32,2 km/h (5 Bft) 96,23 %
09.12.2019 06:36 7,5 C 6,1 C 5,6 C 85 % 995,4 hPa 0,0 l/m 0 min 2 min 0 W/m 29,0 km/h (5 Bft) 98,00 %
09.12.2019 06:38 7,5 C 5,6 C 5,6 C 85 % 995,4 hPa 0,0 l/m 0 min 2 min 0 W/m 35,4 km/h (5 Bft) 97,96 %
09.12.2019 06:40 7,4 C 5,6 C 5,0 C 85 % 995,4 hPa 0,0 l/m 0 min 2 min 0 W/m 29,0 km/h (5 Bft) 100,00 %
09.12.2019 06:42 7,4 C 5,6 C 5,0 C 86 % 995,3 hPa 0,0 l/m 0 min 2 min 0 W/m 29,0 km/h (5 Bft) 96,23 %
09.12.2019 06:44 7,4 C 5,0 C 5,0 C 86 % 995,2 hPa 0,0 l/m 0 min 2 min 0 W/m 25,7 km/h (4 Bft) 93,62 %
09.12.2019 06:46 7,4 C 5,0 C 5,0 C 86 % 995,1 hPa 0,0 l/m 0 min 2 min 0 W/m 22,5 km/h (4 Bft) 94,00 %
09.12.2019 06:48 7,3 C 5,0 C 4,4 C 87 % 995,1 hPa 0,0 l/m 0 min 2 min 0 W/m 29,0 km/h (5 Bft) 97,96 %
09.12.2019 06:50 7,3 C 5,0 C 4,4 C 87 % 995,1 hPa 0,0 l/m 0 min 2 min 0 W/m 16,1 km/h (3 Bft) 97,14 %
09.12.2019 06:52 7,3 C 5,0 C 4,4 C 87 % 995,1 hPa 0,0 l/m 0 min 2 min 0 W/m 25,7 km/h (4 Bft) 95,74 %
09.12.2019 06:54 7,2 C 5,0 C 4,4 C 88 % 995,1 hPa 0,0 l/m 0 min 2 min 0 W/m 22,5 km/h (4 Bft) 98,11 %
09.12.2019 06:56 7,2 C 5,0 C 4,4 C 88 % 995,0 hPa 0,0 l/m 0 min 2 min 0 W/m 19,3 km/h (3 Bft) 94,00 %
09.12.2019 06:58 7,2 C 5,0 C 4,4 C 88 % 995,1 hPa 0,0 l/m 0 min 2 min 0 W/m 19,3 km/h (3 Bft) 97,96 %
09.12.2019 07:00 7,1 C 5,0 C 4,4 C 88 % 995,0 hPa 0,0 l/m 0 min 2 min 0 W/m 25,7 km/h (4 Bft) 94,29 %
09.12.2019 07:02 7,1 C 5,0 C 5,0 C 88 % 995,0 hPa 0,2 l/m 0 min 2 min 0 W/m 19,3 km/h (3 Bft) 68,52 %
09.12.2019 07:04 7,1 C 5,6 C 5,0 C 89 % 994,9 hPa 0,0 l/m 0 min 2 min 0 W/m 32,2 km/h (5 Bft) 89,80 %
09.12.2019 07:06 7,1 C 5,0 C 5,0 C 89 % 995,0 hPa 0,0 l/m 0 min 2 min 0 W/m 16,1 km/h (3 Bft) 95,74 %
09.12.2019 07:08 7,1 C 5,6 C 5,0 C 89 % 995,0 hPa 0,0 l/m 0 min 2 min 0 W/m 32,2 km/h (5 Bft) 95,92 %
09.12.2019 07:10 7,1 C 5,6 C 5,0 C 89 % 995,0 hPa 0,0 l/m 0 min 2 min 0 W/m 29,0 km/h (5 Bft) 94,29 %
09.12.2019 07:12 7,1 C 5,6 C 5,0 C 89 % 994,9 hPa 0,0 l/m 0 min 2 min 0 W/m 54,7 km/h (7 Bft) 96,30 %
09.12.2019 07:14 7,1 C 5,6 C 5,0 C 89 % 994,9 hPa 0,0 l/m 0 min 2 min 0 W/m 54,7 km/h (7 Bft) 93,88 %
09.12.2019 07:16 7,1 C 5,6 C 5,0 C 89 % 995,0 hPa 0,0 l/m 0 min 2 min 0 W/m 22,5 km/h (4 Bft) 95,92 %
09.12.2019 07:18 7,1 C 6,1 C 5,0 C 89 % 994,9 hPa 0,0 l/m 0 min 2 min 0 W/m 45,1 km/h (6 Bft) 94,44 %
09.12.2019 07:20 7,1 C 6,1 C 5,0 C 89 % 995,0 hPa 0,0 l/m 0 min 2 min 0 W/m 32,2 km/h (5 Bft) 96,23 %
09.12.2019 07:22 7,2 C 6,1 C 5,6 C 88 % 994,8 hPa 0,0 l/m 0 min 2 min 0 W/m 38,6 km/h (5 Bft) 96,00 %
09.12.2019 07:24 7,2 C 6,1 C 5,6 C 88 % 994,8 hPa 0,0 l/m 0 min 2 min 0 W/m 35,4 km/h (5 Bft) 91,84 %
09.12.2019 07:26 7,2 C 6,1 C 5,6 C 88 % 994,8 hPa 0,0 l/m 0 min 2 min 0 W/m 29,0 km/h (5 Bft) 97,14 %
09.12.2019 07:28 7,2 C 6,1 C 5,6 C 88 % 994,8 hPa 0,0 l/m 0 min 2 min 0 W/m 35,4 km/h (5 Bft) 97,87 %
09.12.2019 07:30 7,3 C 6,1 C 5,6 C 88 % 995,0 hPa 0,0 l/m 0 min 2 min 0 W/m 35,4 km/h (5 Bft) 98,11 %
09.12.2019 07:32 7,3 C 6,1 C 5,6 C 88 % 994,8 hPa 0,0 l/m 0 min 2 min 0 W/m 29,0 km/h (5 Bft) 96,00 %
09.12.2019 07:34 7,3 C 6,1 C 5,6 C 88 % 994,9 hPa 0,0 l/m 0 min 2 min 0 W/m 19,3 km/h (3 Bft) 97,87 %
09.12.2019 07:36 7,3 C 6,1 C 5,6 C 88 % 994,7 hPa 0,0 l/m 0 min 2 min 0 W/m 29,0 km/h (5 Bft) 97,96 %
09.12.2019 07:38 7,3 C 6,1 C 5,6 C 88 % 994,8 hPa 0,0 l/m 0 min 2 min 0 W/m 41,8 km/h (6 Bft) 97,14 %
09.12.2019 07:40 7,3 C 6,1 C 5,6 C 88 % 994,9 hPa 0,0 l/m 0 min 2 min 0 W/m 41,8 km/h (6 Bft) 98,11 %
09.12.2019 07:42 7,3 C 6,1 C 5,6 C 88 % 994,8 hPa 0,0 l/m 0 min 2 min 0 W/m 41,8 km/h (6 Bft) 95,74 %
09.12.2019 07:44 7,3 C 6,1 C 5,6 C 88 % 994,9 hPa 0,0 l/m 0 min 0 min 0 W/m 35,4 km/h (5 Bft) 98,00 %
09.12.2019 07:46 7,3 C 6,1 C 5,6 C 88 % 994,9 hPa 0,0 l/m 0 min 0 min 0 W/m 41,8 km/h (6 Bft) 95,92 %
09.12.2019 07:48 7,3 C 6,1 C 5,6 C 88 % 994,8 hPa 0,0 l/m 0 min 0 min 0 W/m 29,0 km/h (5 Bft) 100,00 %
09.12.2019 07:50 7,4 C 6,1 C 5,6 C 88 % 994,7 hPa 0,0 l/m 0 min 0 min 0 W/m 38,6 km/h (5 Bft) 100,00 %
09.12.2019 07:52 7,4 C 6,1 C 5,6 C 88 % 994,8 hPa 0,0 l/m 0 min 0 min 0 W/m 25,7 km/h (4 Bft) 100,00 %
09.12.2019 07:54 7,4 C 6,1 C 5,6 C 88 % 994,9 hPa 0,0 l/m 0 min 0 min 0 W/m 38,6 km/h (5 Bft) 97,87 %
09.12.2019 07:56 7,4 C 6,1 C 5,6 C 88 % 994,7 hPa 0,0 l/m 0 min 0 min 0 W/m 38,6 km/h (5 Bft) 100,00 %
09.12.2019 07:58 7,3 C 6,7 C 5,6 C 88 % 994,7 hPa 0,0 l/m 0 min 0 min 0 W/m 38,6 km/h (5 Bft) 100,00 %
09.12.2019 08:00 7,4 C 6,7 C 6,1 C 88 % 995,2 hPa 0,0 l/m 0 min 0 min 0 W/m 41,8 km/h (6 Bft) 100,00 %
09.12.2019 08:02 7,4 C 6,7 C 6,1 C 88 % 994,8 hPa 0,0 l/m 0 min 0 min 0 W/m 41,8 km/h (6 Bft) 100,00 %
09.12.2019 08:04 7,4 C 6,7 C 6,1 C 88 % 994,9 hPa 0,0 l/m 0 min 0 min 0 W/m 29,0 km/h (5 Bft) 98,11 %
09.12.2019 08:06 7,4 C 6,7 C 6,1 C 88 % 994,9 hPa 0,0 l/m 0 min 0 min 0 W/m 32,2 km/h (5 Bft) 100,00 %
09.12.2019 08:08 7,4 C 6,7 C 6,1 C 87 % 994,9 hPa 0,0 l/m 0 min 0 min 0 W/m 51,5 km/h (7 Bft) 100,00 %
09.12.2019 08:10 7,4 C 6,7 C 6,1 C 87 % 994,8 hPa 0,0 l/m 0 min 0 min 0 W/m 35,4 km/h (5 Bft) 100,00 %
09.12.2019 08:12 7,5 C 6,7 C 6,1 C 87 % 994,8 hPa 0,0 l/m 0 min 0 min 0 W/m 25,7 km/h (4 Bft) 100,00 %
09.12.2019 08:14 7,5 C 6,7 C 6,1 C 87 % 994,8 hPa 0,0 l/m 0 min 2 min 0 W/m 32,2 km/h (5 Bft) 100,00 %
09.12.2019 08:16 7,5 C 5,6 C 5,6 C 88 % 994,9 hPa 0,0 l/m 0 min 2 min 0 W/m 32,2 km/h (5 Bft) 100,00 %
09.12.2019 08:18 7,5 C 5,6 C 5,0 C 88 % 994,9 hPa 0,2 l/m 0 min 2 min 0 W/m 32,2 km/h (5 Bft) 100,00 %
09.12.2019 08:20 7,4 C 5,0 C 5,0 C 88 % 994,9 hPa 0,0 l/m 0 min 2 min 0 W/m 35,4 km/h (5 Bft) 100,00 %
09.12.2019 08:22 7,4 C 5,0 C 5,0 C 89 % 994,8 hPa 0,0 l/m 0 min 2 min 0 W/m 41,8 km/h (6 Bft) 100,00 %
09.12.2019 08:24 7,4 C 5,0 C 5,0 C 89 % 994,7 hPa 0,0 l/m 0 min 2 min 0 W/m 35,4 km/h (5 Bft) 100,00 %
09.12.2019 08:26 7,3 C 5,6 C 5,0 C 89 % 994,8 hPa 0,0 l/m 0 min 2 min 0 W/m 48,3 km/h (6 Bft) 98,00 %
09.12.2019 08:28 7,3 C 5,6 C 5,0 C 90 % 994,5 hPa 0,0 l/m 0 min 2 min 0 W/m 22,5 km/h (4 Bft) 100,00 %
09.12.2019 08:30 7,3 C 5,6 C 5,0 C 89 % 994,8 hPa 0,0 l/m 0 min 2 min 0 W/m 22,5 km/h (4 Bft) 100,00 %
09.12.2019 08:32 7,2 C 5,6 C 5,0 C 90 % 994,8 hPa 0,0 l/m 0 min 2 min 0 W/m 29,0 km/h (5 Bft) 100,00 %
09.12.2019 08:34 7,2 C 5,6 C 5,0 C 90 % 994,8 hPa 0,0 l/m 0 min 2 min 0 W/m 32,2 km/h (5 Bft) 100,00 %
09.12.2019 08:36 7,2 C 5,6 C 5,0 C 90 % 994,8 hPa 0,0 l/m 0 min 2 min 0 W/m 25,7 km/h (4 Bft) 100,00 %
09.12.2019 08:38 7,2 C 5,6 C 5,0 C 90 % 994,8 hPa 0,0 l/m 0 min 2 min 0 W/m 25,7 km/h (4 Bft) 100,00 %
09.12.2019 08:40 7,1 C 5,6 C 5,0 C 90 % 994,7 hPa 0,0 l/m 0 min 2 min 0 W/m 38,6 km/h (5 Bft) 100,00 %
09.12.2019 08:42 7,1 C 5,6 C 5,0 C 91 % 994,8 hPa 0,0 l/m 0 min 2 min 0 W/m 25,7 km/h (4 Bft) 100,00 %
09.12.2019 08:44 7,1 C 5,6 C 5,0 C 91 % 994,9 hPa 0,0 l/m 0 min 2 min 0 W/m 22,5 km/h (4 Bft) 100,00 %
09.12.2019 08:46 7,2 C 5,6 C 5,0 C 91 % 995,0 hPa 0,0 l/m 0 min 2 min 0 W/m 41,8 km/h (6 Bft) 97,87 %
09.12.2019 08:48 7,2 C 5,0 C 5,0 C 91 % 995,0 hPa 0,0 l/m 0 min 2 min 0 W/m 25,7 km/h (4 Bft) 100,00 %
09.12.2019 08:50 7,2 C 5,0 C 5,0 C 91 % 994,9 hPa 0,2 l/m 0 min 2 min 0 W/m 29,0 km/h (5 Bft) 100,00 %
09.12.2019 08:52 7,2 C 5,6 C 5,0 C 91 % 995,3 hPa 0,0 l/m 0 min 2 min 0 W/m 61,2 km/h (7 Bft) 97,87 %
09.12.2019 08:54 7,2 C 5,6 C 5,0 C 91 % 995,0 hPa 0,0 l/m 0 min 2 min 0 W/m 32,2 km/h (5 Bft) 98,00 %
09.12.2019 08:56 7,2 C 5,6 C 5,0 C 91 % 995,1 hPa 0,0 l/m 0 min 2 min 0 W/m 25,7 km/h (4 Bft) 100,00 %
09.12.2019 08:58 7,2 C 5,0 C 5,0 C 91 % 995,3 hPa 0,0 l/m 0 min 2 min 0 W/m 16,1 km/h (3 Bft) 100,00 %
09.12.2019 09:00 7,1 C 5,0 C 5,0 C 91 % 995,4 hPa 0,0 l/m 0 min 2 min 0 W/m 38,6 km/h (5 Bft) 100,00 %
09.12.2019 09:02 7,1 C 5,0 C 5,0 C 91 % 995,3 hPa 0,0 l/m 0 min 2 min 5 W/m 25,7 km/h (4 Bft) 98,11 %
09.12.2019 09:04 7,1 C 5,6 C 5,0 C 91 % 995,4 hPa 0,0 l/m 0 min 2 min 5 W/m 29,0 km/h (5 Bft) 97,87 %
09.12.2019 09:06 7,1 C 5,6 C 5,0 C 91 % 995,4 hPa 0,0 l/m 0 min 2 min 5 W/m 32,2 km/h (5 Bft) 98,00 %
09.12.2019 09:08 7,1 C 5,6 C 5,0 C 91 % 995,5 hPa 0,0 l/m 0 min 2 min 5 W/m 29,0 km/h (5 Bft) 100,00 %
09.12.2019 09:10 7,1 C 5,6 C 5,0 C 91 % 995,5 hPa 0,0 l/m 0 min 2 min 5 W/m 29,0 km/h (5 Bft) 100,00 %
09.12.2019 09:12 7,1 C 5,6 C 5,0 C 92 % 995,6 hPa 0,0 l/m 0 min 2 min 7 W/m 25,7 km/h (4 Bft) 93,62 %
09.12.2019 09:14 7,1 C 5,0 C 5,0 C 92 % 995,6 hPa 0,2 l/m 0 min 2 min 9 W/m 25,7 km/h (4 Bft) 94,34 %
09.12.2019 09:16 7,1 C 5,0 C 5,0 C 92 % 995,7 hPa 0,0 l/m 0 min 2 min 10 W/m 16,1 km/h (3 Bft) 98,00 %
09.12.2019 09:18 7,0 C 5,0 C 5,0 C 92 % 995,6 hPa 0,2 l/m 0 min 2 min 12 W/m 19,3 km/h (3 Bft) 97,96 %
09.12.2019 09:20 6,9 C 5,0 C 4,4 C 92 % 995,7 hPa 0,2 l/m 0 min 2 min 14 W/m 77,2 km/h (9 Bft) 97,14 %
09.12.2019 09:22 6,9 C 5,0 C 4,4 C 92 % 995,9 hPa 0,2 l/m 0 min 2 min 18 W/m 32,2 km/h (5 Bft) 96,23 %
09.12.2019 09:24 6,8 C 4,4 C 4,4 C 92 % 996,0 hPa 0,2 l/m 0 min 2 min 18 W/m 29,0 km/h (5 Bft) 96,00 %
09.12.2019 09:26 6,7 C 4,4 C 4,4 C 92 % 996,0 hPa 0,4 l/m 0 min 2 min 16 W/m 22,5 km/h (4 Bft) 93,88 %
09.12.2019 09:28 6,7 C 5,0 C 4,4 C 92 % 996,0 hPa 0,2 l/m 0 min 2 min 14 W/m 16,1 km/h (3 Bft) 97,14 %
09.12.2019 09:30 6,6 C 5,0 C 4,4 C 92 % 996,0 hPa 0,2 l/m 0 min 2 min 11 W/m 29,0 km/h (5 Bft) 95,74 %
09.12.2019 09:32 6,6 C 5,0 C 4,4 C 92 % 996,1 hPa 0,2 l/m 0 min 2 min 7 W/m 29,0 km/h (5 Bft) 95,74 %
09.12.2019 09:34 6,5 C 5,0 C 4,4 C 93 % 996,1 hPa 0,2 l/m 0 min 2 min 5 W/m 19,3 km/h (3 Bft) 94,34 %
09.12.2019 09:36 6,5 C 4,4 C 4,4 C 93 % 996,2 hPa 0,0 l/m 0 min 2 min 1 W/m 19,3 km/h (3 Bft) 96,00 %
09.12.2019 09:38 6,5 C 4,4 C 4,4 C 93 % 996,1 hPa 0,2 l/m 0 min 2 min 0 W/m 16,1 km/h (3 Bft) 93,88 %
09.12.2019 09:40 6,4 C 4,4 C 4,4 C 93 % 996,2 hPa 0,2 l/m 0 min 2 min 0 W/m 16,1 km/h (3 Bft) 97,14 %
09.12.2019 09:42 6,4 C 4,4 C 4,4 C 93 % 996,2 hPa 0,0 l/m 0 min 2 min 0 W/m 9,7 km/h (2 Bft) 93,62 %
09.12.2019 09:44 6,4 C 4,4 C 4,4 C 93 % 996,1 hPa 0,0 l/m 0 min 2 min 0 W/m 16,1 km/h (3 Bft) 94,34 %
09.12.2019 09:46 6,3 C 4,4 C 4,4 C 93 % 996,1 hPa 0,0 l/m 0 min 2 min 0 W/m 19,3 km/h (3 Bft) 93,62 %
09.12.2019 09:48 6,3 C 5,0 C 4,4 C 93 % 996,1 hPa 0,0 l/m 0 min 2 min 2 W/m 22,5 km/h (4 Bft) 96,00 %
09.12.2019 09:50 6,3 C 5,0 C 4,4 C 94 % 996,0 hPa 0,0 l/m 0 min 2 min 5 W/m 22,5 km/h (4 Bft) 91,84 %
09.12.2019 09:52 6,3 C 5,0 C 4,4 C 94 % 996,1 hPa 0,0 l/m 0 min 2 min 7 W/m 22,5 km/h (4 Bft) 91,49 %
09.12.2019 09:54 6,3 C 5,0 C 4,4 C 94 % 996,2 hPa 0,2 l/m 0 min 2 min 9 W/m 29,0 km/h (5 Bft) 91,43 %
09.12.2019 09:56 6,3 C 5,0 C 4,4 C 94 % 996,3 hPa 0,0 l/m 0 min 2 min 14 W/m 25,7 km/h (4 Bft) 94,34 %
09.12.2019 09:58 6,3 C 5,0 C 4,4 C 94 % 996,3 hPa 0,0 l/m 0 min 2 min 13 W/m 19,3 km/h (3 Bft) 94,00 %
09.12.2019 10:00 6,3 C 5,0 C 4,4 C 95 % 996,3 hPa 0,0 l/m 0 min 2 min 13 W/m 29,0 km/h (5 Bft) 93,62 %
09.12.2019 10:02 6,3 C 5,0 C 4,4 C 95 % 996,5 hPa 0,0 l/m 0 min 2 min 13 W/m 32,2 km/h (5 Bft) 95,92 %
09.12.2019 10:04 6,3 C 5,0 C 4,4 C 95 % 996,5 hPa 0,2 l/m 0 min 2 min 13 W/m 22,5 km/h (4 Bft) 93,62 %
09.12.2019 10:06 6,3 C 5,0 C 4,4 C 95 % 996,6 hPa 0,0 l/m 0 min 2 min 13 W/m 22,5 km/h (4 Bft) 91,43 %
09.12.2019 10:08 6,4 C 5,0 C 4,4 C 95 % 996,7 hPa 0,0 l/m 0 min 2 min 12 W/m 22,5 km/h (4 Bft) 92,45 %
09.12.2019 10:10 6,4 C 5,0 C 4,4 C 95 % 996,8 hPa 0,0 l/m 0 min 2 min 12 W/m 19,3 km/h (3 Bft) 94,00 %
09.12.2019 10:12 6,4 C 5,0 C 5,0 C 95 % 996,7 hPa 0,0 l/m 0 min 2 min 11 W/m 12,9 km/h (3 Bft) 93,88 %
09.12.2019 10:14 6,4 C 5,0 C 5,0 C 96 % 996,9 hPa 0,2 l/m 0 min 2 min 11 W/m 12,9 km/h (3 Bft) 95,74 %
09.12.2019 10:16 6,4 C 5,0 C 5,0 C 95 % 997,0 hPa 0,0 l/m 0 min 2 min 11 W/m 12,9 km/h (3 Bft) 95,74 %
09.12.2019 10:18 6,4 C 5,0 C 5,0 C 95 % 997,0 hPa 0,0 l/m 0 min 2 min 15 W/m 6,4 km/h (2 Bft) 97,87 %
09.12.2019 10:20 6,4 C 5,0 C 5,0 C 96 % 997,0 hPa 0,0 l/m 0 min 2 min 16 W/m 29,0 km/h (5 Bft) 97,87 %
09.12.2019 10:22 6,4 C 5,6 C 5,0 C 96 % 997,2 hPa 0,2 l/m 0 min 2 min 16 W/m 16,1 km/h (3 Bft) 97,83 %
09.12.2019 10:24 6,4 C 5,6 C 5,0 C 96 % 997,2 hPa 0,0 l/m 0 min 2 min 16 W/m 12,9 km/h (3 Bft) 97,22 %
09.12.2019 10:26 6,4 C 5,6 C 5,0 C 96 % 997,2 hPa 0,0 l/m 0 min 2 min 18 W/m 16,1 km/h (3 Bft) 94,34 %
09.12.2019 10:28 6,4 C 5,6 C 5,0 C 96 % 997,3 hPa 0,0 l/m 0 min 2 min 15 W/m 9,7 km/h (2 Bft) 95,74 %
09.12.2019 10:30 6,4 C 5,6 C 5,0 C 96 % 997,4 hPa 0,0 l/m 0 min 2 min 12 W/m 12,9 km/h (3 Bft) 97,96 %
09.12.2019 10:32 6,4 C 5,6 C 5,0 C 96 % 997,5 hPa 0,2 l/m 0 min 2 min 12 W/m 16,1 km/h (3 Bft) 98,00 %
09.12.2019 10:34 6,5 C 5,6 C 5,0 C 96 % 997,6 hPa 0,2 l/m 0 min 2 min 13 W/m 6,4 km/h (2 Bft) 100,00 %
09.12.2019 10:36 6,5 C 5,6 C 5,0 C 96 % 997,6 hPa 0,2 l/m 0 min 2 min 11 W/m 19,3 km/h (3 Bft) 97,87 %
09.12.2019 10:38 6,5 C 5,6 C 5,0 C 96 % 997,7 hPa 0,2 l/m 0 min 2 min 12 W/m 19,3 km/h (3 Bft) 100,00 %
09.12.2019 10:40 6,5 C 5,6 C 5,0 C 96 % 997,7 hPa 0,2 l/m 0 min 2 min 13 W/m 12,9 km/h (3 Bft) 97,87 %
09.12.2019 10:42 6,5 C 5,6 C 5,0 C 96 % 997,8 hPa 0,0 l/m 0 min 2 min 13 W/m 19,3 km/h (3 Bft) 100,00 %
09.12.2019 10:44 6,5 C 5,6 C 5,0 C 96 % 997,8 hPa 0,2 l/m 0 min 2 min 11 W/m 16,1 km/h (3 Bft) 97,87 %
09.12.2019 10:46 6,4 C 5,6 C 5,0 C 97 % 997,9 hPa 0,0 l/m 0 min 2 min 13 W/m 16,1 km/h (3 Bft) 100,00 %
09.12.2019 10:48 6,4 C 5,6 C 5,0 C 97 % 997,9 hPa 0,2 l/m 0 min 2 min 15 W/m 12,9 km/h (3 Bft) 100,00 %
09.12.2019 10:50 6,4 C 5,6 C 5,0 C 97 % 997,9 hPa 0,2 l/m 0 min 2 min 12 W/m 12,9 km/h (3 Bft) 100,00 %
09.12.2019 10:52 6,5 C 5,6 C 5,0 C 97 % 998,0 hPa 0,2 l/m 0 min 2 min 10 W/m 9,7 km/h (2 Bft) 98,00 %
09.12.2019 10:54 6,4 C 5,6 C 5,0 C 97 % 998,1 hPa 0,2 l/m 0 min 2 min 10 W/m 16,1 km/h (3 Bft) 100,00 %
09.12.2019 10:56 6,4 C 5,6 C 5,0 C 97 % 998,0 hPa 0,2 l/m 0 min 2 min 16 W/m 12,9 km/h (3 Bft) 97,87 %
09.12.2019 10:58 6,4 C 5,6 C 5,0 C 97 % 998,0 hPa 0,0 l/m 0 min 2 min 18 W/m 16,1 km/h (3 Bft) 97,83 %
09.12.2019 11:00 6,4 C 5,6 C 5,0 C 97 % 998,1 hPa 0,2 l/m 0 min 2 min 17 W/m 12,9 km/h (3 Bft) 100,00 %
09.12.2019 11:02 6,4 C 5,6 C 5,0 C 97 % 998,2 hPa 0,0 l/m 0 min 2 min 14 W/m 6,4 km/h (2 Bft) 98,15 %
09.12.2019 11:04 6,4 C 5,6 C 5,0 C 97 % 998,3 hPa 0,2 l/m 0 min 2 min 16 W/m 9,7 km/h (2 Bft) 97,96 %
09.12.2019 11:06 6,4 C 5,0 C 5,0 C 97 % 998,2 hPa 0,0 l/m 0 min 2 min 20 W/m 12,9 km/h (3 Bft) 100,00 %
09.12.2019 11:08 6,4 C 5,0 C 5,0 C 97 % 998,3 hPa 0,2 l/m 0 min 2 min 21 W/m 12,9 km/h (3 Bft) 97,96 %
09.12.2019 11:10 6,4 C 5,0 C 5,0 C 97 % 998,3 hPa 0,0 l/m 0 min 2 min 21 W/m 16,1 km/h (3 Bft) 100,00 %
09.12.2019 11:12 6,3 C 5,0 C 4,4 C 97 % 998,4 hPa 0,0 l/m 0 min 2 min 21 W/m 16,1 km/h (3 Bft) 100,00 %
09.12.2019 11:14 6,3 C 5,0 C 5,0 C 97 % 998,4 hPa 0,0 l/m 0 min 0 min 21 W/m 6,4 km/h (2 Bft) 100,00 %
09.12.2019 11:16 6,3 C 5,0 C 5,0 C 97 % 998,5 hPa 0,0 l/m 0 min 2 min 16 W/m 19,3 km/h (3 Bft) 100,00 %
09.12.2019 11:18 6,3 C 5,0 C 5,0 C 97 % 998,5 hPa 0,0 l/m 0 min 2 min 15 W/m 9,7 km/h (2 Bft) 100,00 %
09.12.2019 11:20 6,3 C 5,0 C 5,0 C 97 % 998,5 hPa 0,0 l/m 0 min 0 min 26 W/m 12,9 km/h (3 Bft) 100,00 %
09.12.2019 11:22 6,3 C 5,6 C 5,0 C 97 % 998,6 hPa 0,0 l/m 0 min 0 min 32 W/m 12,9 km/h (3 Bft) 100,00 %
09.12.2019 11:24 6,3 C 5,6 C 5,0 C 97 % 998,6 hPa 0,0 l/m 0 min 0 min 37 W/m 12,9 km/h (3 Bft) 100,00 %
09.12.2019 11:26 6,3 C 5,6 C 5,0 C 97 % 998,6 hPa 0,0 l/m 0 min 0 min 54 W/m 12,9 km/h (3 Bft) 100,00 %
09.12.2019 11:28 6,3 C 5,6 C 5,0 C 97 % 998,6 hPa 0,0 l/m 0 min 0 min 46 W/m 9,7 km/h (2 Bft) 100,00 %
09.12.2019 11:30 6,4 C 5,6 C 5,0 C 97 % 998,6 hPa 0,0 l/m 0 min 0 min 37 W/m 9,7 km/h (2 Bft) 100,00 %
09.12.2019 11:32 6,4 C 5,6 C 5,0 C 97 % 998,6 hPa 0,0 l/m 0 min 0 min 53 W/m 6,4 km/h (2 Bft) 100,00 %
09.12.2019 11:34 6,4 C 6,1 C 5,0 C 97 % 998,7 hPa 0,0 l/m 0 min 0 min 65 W/m 12,9 km/h (3 Bft) 100,00 %
09.12.2019 11:36 6,4 C 6,1 C 5,6 C 97 % 998,8 hPa 0,0 l/m 0 min 0 min 75 W/m 6,4 km/h (2 Bft) 100,00 %
09.12.2019 11:38 6,5 C 6,1 C 5,6 C 97 % 998,8 hPa 0,0 l/m 0 min 0 min 95 W/m 12,9 km/h (3 Bft) 100,00 %
09.12.2019 11:40 6,5 C 6,1 C 5,6 C 97 % 998,8 hPa 0,0 l/m 0 min 0 min 81 W/m 6,4 km/h (2 Bft) 100,00 %
09.12.2019 11:42 6,6 C 6,1 C 5,6 C 97 % 998,8 hPa 0,0 l/m 0 min 0 min 81 W/m 6,4 km/h (2 Bft) 100,00 %
09.12.2019 11:44 6,6 C 6,1 C 5,6 C 98 % 998,9 hPa 0,0 l/m 0 min 0 min 77 W/m 9,7 km/h (2 Bft) 100,00 %
09.12.2019 11:46 6,6 C 6,1 C 5,6 C 98 % 998,9 hPa 0,0 l/m 0 min 0 min 77 W/m 6,4 km/h (2 Bft) 100,00 %
09.12.2019 11:48 6,6 C 6,1 C 5,6 C 98 % 999,0 hPa 0,0 l/m 0 min 0 min 73 W/m 9,7 km/h (2 Bft) 100,00 %
09.12.2019 11:50 6,7 C 6,1 C 5,6 C 98 % 999,0 hPa 0,0 l/m 0 min 0 min 73 W/m 16,1 km/h (3 Bft) 100,00 %
09.12.2019 11:52 6,7 C 6,1 C 5,6 C 98 % 999,0 hPa 0,0 l/m 0 min 0 min 74 W/m 9,7 km/h (2 Bft) 100,00 %
09.12.2019 11:54 6,7 C 6,1 C 5,6 C 98 % 999,0 hPa 0,0 l/m 0 min 0 min 86 W/m 16,1 km/h (3 Bft) 100,00 %
09.12.2019 11:56 6,7 C 6,1 C 5,6 C 98 % 999,1 hPa 0,0 l/m 0 min 0 min 97 W/m 12,9 km/h (3 Bft) 100,00 %
09.12.2019 11:58 6,8 C 6,1 C 5,6 C 98 % 999,1 hPa 0,0 l/m 0 min 0 min 102 W/m 12,9 km/h (3 Bft) 97,87 %
09.12.2019 12:00 6,8 C 6,1 C 5,6 C 98 % 999,1 hPa 0,0 l/m 0 min 0 min 91 W/m 9,7 km/h (2 Bft) 97,87 %
09.12.2019 12:02 6,8 C 6,1 C 5,6 C 98 % 999,1 hPa 0,0 l/m 0 min 0 min 83 W/m 12,9 km/h (3 Bft) 100,00 %
09.12.2019 12:04 6,8 C 6,1 C 5,6 C 98 % 999,2 hPa 0,0 l/m 0 min 0 min 78 W/m 12,9 km/h (3 Bft) 100,00 %
09.12.2019 12:06 6,8 C 6,1 C 5,6 C 98 % 999,2 hPa 0,0 l/m 0 min 0 min 75 W/m 16,1 km/h (3 Bft) 97,87 %
09.12.2019 12:08 6,8 C 6,7 C 5,6 C 98 % 999,2 hPa 0,0 l/m 0 min 0 min 113 W/m 16,1 km/h (3 Bft) 97,83 %
09.12.2019 12:10 6,8 C 6,7 C 6,1 C 98 % 999,3 hPa 0,0 l/m 0 min 0 min 142 W/m 6,4 km/h (2 Bft) 95,74 %
09.12.2019 12:12 6,9 C 6,7 C 6,1 C 98 % 999,3 hPa 0,0 l/m 0 min 0 min 109 W/m 12,9 km/h (3 Bft) 97,87 %
09.12.2019 12:14 6,9 C 6,7 C 6,1 C 98 % 999,3 hPa 0,0 l/m 0 min 0 min 131 W/m 16,1 km/h (3 Bft) 100,00 %
09.12.2019 12:16 6,9 C 6,7 C 6,1 C 98 % 999,3 hPa 0,0 l/m 0 min 0 min 135 W/m 12,9 km/h (3 Bft) 97,87 %
09.12.2019 12:18 6,9 C 6,7 C 6,1 C 98 % 999,3 hPa 0,0 l/m 0 min 0 min 116 W/m 12,9 km/h (3 Bft) 97,83 %
09.12.2019 12:20 7,0 C 6,7 C 6,1 C 98 % 999,4 hPa 0,0 l/m 0 min 0 min 79 W/m 6,4 km/h (2 Bft) 97,87 %
09.12.2019 12:22 7,0 C 6,7 C 5,6 C 98 % 999,4 hPa 0,0 l/m 0 min 0 min 81 W/m 16,1 km/h (3 Bft) 95,74 %
09.12.2019 12:24 7,0 C 6,7 C 5,6 C 98 % 999,5 hPa 0,0 l/m 0 min 0 min 102 W/m 12,9 km/h (3 Bft) 93,62 %
09.12.2019 12:26 7,0 C 6,7 C 6,1 C 98 % 999,4 hPa 0,0 l/m 0 min 0 min 119 W/m 16,1 km/h (3 Bft) 93,62 %
09.12.2019 12:28 7,0 C 6,7 C 6,1 C 98 % 999,4 hPa 0,0 l/m 0 min 0 min 113 W/m 12,9 km/h (3 Bft) 95,74 %
09.12.2019 12:30 7,0 C 6,7 C 6,1 C 98 % 999,5 hPa 0,0 l/m 0 min 0 min 100 W/m 12,9 km/h (3 Bft) 93,48 %
09.12.2019 12:32 7,0 C 6,7 C 6,1 C 98 % 999,5 hPa 0,0 l/m 0 min 0 min 105 W/m 12,9 km/h (3 Bft) 93,62 %
09.12.2019 12:34 7,1 C 6,7 C 6,1 C 98 % 999,6 hPa 0,0 l/m 0 min 0 min 94 W/m 9,7 km/h (2 Bft) 95,74 %
09.12.2019 12:36 7,1 C 6,7 C 6,1 C 98 % 999,6 hPa 0,0 l/m 0 min 0 min 101 W/m 6,4 km/h (2 Bft) 95,74 %
09.12.2019 12:38 7,1 C 6,7 C 6,1 C 98 % 999,6 hPa 0,0 l/m 0 min 0 min 122 W/m 12,9 km/h (3 Bft) 95,74 %
09.12.2019 12:40 7,1 C 6,7 C 6,1 C 97 % 999,6 hPa 0,0 l/m 0 min 0 min 139 W/m 19,3 km/h (3 Bft) 93,62 %
09.12.2019 12:42 7,1 C 7,2 C 6,1 C 97 % 999,6 hPa 0,0 l/m 2 min 0 min 183 W/m 12,9 km/h (3 Bft) 91,30 %
09.12.2019 12:44 7,1 C 7,2 C 6,1 C 97 % 999,6 hPa 0,0 l/m 2 min 0 min 155 W/m 12,9 km/h (3 Bft) 93,62 %
09.12.2019 12:46 7,1 C 7,2 C 6,1 C 97 % 999,6 hPa 0,0 l/m 2 min 0 min 158 W/m 12,9 km/h (3 Bft) 93,62 %
09.12.2019 12:48 7,1 C 7,8 C 6,1 C 97 % 999,7 hPa 0,0 l/m 2 min 0 min 176 W/m 16,1 km/h (3 Bft) 93,62 %
09.12.2019 12:50 7,2 C 7,8 C 6,1 C 97 % 999,8 hPa 0,0 l/m 2 min 0 min 219 W/m 16,1 km/h (3 Bft) 91,49 %
09.12.2019 12:52 7,2 C 7,2 C 6,1 C 97 % 999,8 hPa 0,0 l/m 0 min 0 min 134 W/m 6,4 km/h (2 Bft) 93,62 %
09.12.2019 12:54 7,2 C 6,7 C 6,1 C 97 % 999,7 hPa 0,0 l/m 0 min 0 min 95 W/m 16,1 km/h (3 Bft) 91,30 %
09.12.2019 12:56 7,2 C 6,7 C 6,1 C 97 % 999,8 hPa 0,0 l/m 0 min 0 min 62 W/m 16,1 km/h (3 Bft) 91,49 %
09.12.2019 12:58 7,2 C 6,7 C 5,6 C 97 % 999,9 hPa 0,0 l/m 0 min 0 min 57 W/m 6,4 km/h (2 Bft) 95,74 %
09.12.2019 13:00 7,2 C 6,1 C 5,6 C 97 % 999,9 hPa 0,0 l/m 0 min 0 min 68 W/m 19,3 km/h (3 Bft) 91,49 %
09.12.2019 13:02 7,2 C 6,1 C 5,6 C 97 % 999,9 hPa 0,0 l/m 0 min 2 min 67 W/m 19,3 km/h (3 Bft) 93,62 %
09.12.2019 13:04 7,2 C 6,1 C 5,6 C 97 % 999,9 hPa 0,0 l/m 0 min 2 min 67 W/m 19,3 km/h (3 Bft) 93,62 %
09.12.2019 13:06 7,2 C 6,1 C 5,6 C 97 % 1000,0 hPa 0,0 l/m 0 min 2 min 56 W/m 9,7 km/h (2 Bft) 95,65 %
09.12.2019 13:08 7,2 C 6,1 C 5,6 C 97 % 1000,1 hPa 0,0 l/m 0 min 2 min 47 W/m 6,4 km/h (2 Bft) 91,49 %
09.12.2019 13:10 7,2 C 6,1 C 5,6 C 97 % 1000,1 hPa 0,0 l/m 0 min 2 min 43 W/m 19,3 km/h (3 Bft) 97,87 %
09.12.2019 13:12 7,2 C 6,1 C 5,6 C 97 % 1000,1 hPa 0,0 l/m 0 min 2 min 39 W/m 12,9 km/h (3 Bft) 97,87 %
09.12.2019 13:14 7,1 C 6,1 C 5,6 C 97 % 1000,1 hPa 0,0 l/m 0 min 2 min 46 W/m 12,9 km/h (3 Bft) 97,87 %
09.12.2019 13:16 7,1 C 6,1 C 5,6 C 97 % 1000,1 hPa 0,0 l/m 0 min 2 min 73 W/m 6,4 km/h (2 Bft) 95,65 %
09.12.2019 13:18 7,1 C 6,1 C 5,6 C 97 % 1000,2 hPa 0,0 l/m 0 min 2 min 101 W/m 12,9 km/h (3 Bft) 95,74 %
09.12.2019 13:20 7,1 C 6,1 C 5,6 C 97 % 1000,2 hPa 0,0 l/m 0 min 2 min 124 W/m 22,5 km/h (4 Bft) 97,87 %
09.12.2019 13:22 7,1 C 6,1 C 5,6 C 97 % 1000,2 hPa 0,2 l/m 0 min 2 min 110 W/m 6,4 km/h (2 Bft) 97,87 %
09.12.2019 13:24 7,1 C 6,1 C 5,6 C 97 % 1000,2 hPa 0,0 l/m 0 min 2 min 73 W/m 6,4 km/h (2 Bft) 97,87 %
09.12.2019 13:26 7,1 C 5,6 C 5,6 C 97 % 1000,2 hPa 0,2 l/m 0 min 2 min 50 W/m 16,1 km/h (3 Bft) 97,87 %
09.12.2019 13:28 7,1 C 5,6 C 5,6 C 97 % 1000,3 hPa 0,0 l/m 0 min 2 min 51 W/m 9,7 km/h (2 Bft) 97,83 %
09.12.2019 13:30 7,0 C 6,1 C 5,6 C 97 % 1000,3 hPa 0,0 l/m 0 min 2 min 73 W/m 6,4 km/h (2 Bft) 97,87 %
09.12.2019 13:32 7,0 C 6,1 C 5,6 C 97 % 1000,4 hPa 0,0 l/m 0 min 0 min 99 W/m 9,7 km/h (2 Bft) 93,62 %
09.12.2019 13:34 7,0 C 6,1 C 5,6 C 97 % 1000,4 hPa 0,0 l/m 0 min 0 min 111 W/m 6,4 km/h (2 Bft) 100,00 %
09.12.2019 13:36 7,1 C 6,7 C 5,6 C 97 % 1000,5 hPa 0,0 l/m 2 min 0 min 142 W/m 3,2 km/h (1 Bft) 100,00 %
09.12.2019 13:38 7,1 C 6,7 C 6,1 C 97 % 1000,5 hPa 0,0 l/m 2 min 0 min 148 W/m 6,4 km/h (2 Bft) 100,00 %
09.12.2019 13:40 7,1 C 6,7 C 6,1 C 97 % 1000,6 hPa 0,0 l/m 0 min 0 min 120 W/m 9,7 km/h (2 Bft) 100,00 %
09.12.2019 13:42 7,1 C 7,2 C 6,1 C 97 % 1000,5 hPa 0,0 l/m 0 min 0 min 133 W/m 9,7 km/h (2 Bft) 97,87 %
09.12.2019 13:44 7,1 C 7,8 C 6,1 C 97 % 1000,6 hPa 0,0 l/m 2 min 0 min 243 W/m 12,9 km/h (3 Bft) 100,00 %
09.12.2019 13:46 7,2 C 8,3 C 6,1 C 97 % 1000,6 hPa 0,0 l/m 2 min 0 min 245 W/m 12,9 km/h (3 Bft) 100,00 %
09.12.2019 13:48 7,2 C 8,9 C 6,1 C 97 % 1000,6 hPa 0,0 l/m 2 min 0 min 233 W/m 6,4 km/h (2 Bft) 100,00 %
09.12.2019 13:50 7,3 C 9,4 C 6,7 C 97 % 1000,7 hPa 0,0 l/m 2 min 0 min 247 W/m 12,9 km/h (3 Bft) 93,62 %
09.12.2019 13:52 7,3 C 8,9 C 6,1 C 97 % 1000,7 hPa 0,0 l/m 2 min 0 min 273 W/m 3,2 km/h (1 Bft) 100,00 %
09.12.2019 13:54 7,3 C 7,8 C 6,1 C 97 % 1000,7 hPa 0,0 l/m 2 min 0 min 170 W/m 12,9 km/h (3 Bft) 97,87 %
09.12.2019 13:56 7,4 C 7,2 C 6,1 C 97 % 1000,8 hPa 0,0 l/m 0 min 0 min 127 W/m 16,1 km/h (3 Bft) 100,00 %
09.12.2019 13:58 7,4 C 7,2 C 6,1 C 97 % 1000,8 hPa 0,0 l/m 2 min 0 min 134 W/m 6,4 km/h (2 Bft) 100,00 %
09.12.2019 14:00 7,4 C 7,2 C 6,1 C 97 % 1000,8 hPa 0,0 l/m 0 min 0 min 121 W/m 9,7 km/h (2 Bft) 100,00 %
09.12.2019 14:02 7,3 C 6,7 C 6,1 C 97 % 1000,9 hPa 0,0 l/m 0 min 0 min 109 W/m 6,4 km/h (2 Bft) 100,00 %
09.12.2019 14:04 7,4 C 6,7 C 6,1 C 97 % 1000,9 hPa 0,0 l/m 0 min 0 min 121 W/m 9,7 km/h (2 Bft) 100,00 %
09.12.2019 14:06 7,3 C 6,7 C 6,1 C 97 % 1000,9 hPa 0,0 l/m 0 min 0 min 111 W/m 16,1 km/h (3 Bft) 100,00 %
09.12.2019 14:08 7,3 C 6,7 C 6,1 C 97 % 1000,9 hPa 0,0 l/m 0 min 0 min 108 W/m 9,7 km/h (2 Bft) 100,00 %
09.12.2019 14:10 7,3 C 6,7 C 6,1 C 97 % 1001,0 hPa 0,0 l/m 0 min 0 min 106 W/m 9,7 km/h (2 Bft) 100,00 %
09.12.2019 14:12 7,3 C 6,7 C 6,1 C 97 % 1001,0 hPa 0,0 l/m 0 min 0 min 119 W/m 6,4 km/h (2 Bft) 97,87 %
09.12.2019 14:14 7,3 C 7,2 C 6,1 C 97 % 1001,0 hPa 0,0 l/m 2 min 0 min 152 W/m 6,4 km/h (2 Bft) 97,87 %
09.12.2019 14:16 7,3 C 7,2 C 6,1 C 97 % 1001,1 hPa 0,0 l/m 2 min 0 min 172 W/m 6,4 km/h (2 Bft) 100,00 %
09.12.2019 14:18 7,3 C 7,2 C 6,1 C 97 % 1001,1 hPa 0,0 l/m 2 min 0 min 132 W/m 9,7 km/h (2 Bft) 100,00 %
09.12.2019 14:20 7,3 C 7,2 C 6,1 C 97 % 1001,1 hPa 0,0 l/m 2 min 0 min 128 W/m 12,9 km/h (3 Bft) 97,87 %
09.12.2019 14:22 7,4 C 7,2 C 6,1 C 97 % 1001,2 hPa 0,0 l/m 2 min 0 min 121 W/m 3,2 km/h (1 Bft) 100,00 %
09.12.2019 14:24 7,4 C 7,2 C 6,1 C 97 % 1001,2 hPa 0,0 l/m 2 min 0 min 115 W/m 6,4 km/h (2 Bft) 100,00 %
09.12.2019 14:26 7,4 C 6,7 C 6,1 C 97 % 1001,3 hPa 0,0 l/m 0 min 0 min 79 W/m 6,4 km/h (2 Bft) 100,00 %
09.12.2019 14:28 7,4 C 6,7 C 6,1 C 97 % 1001,3 hPa 0,0 l/m 0 min 0 min 73 W/m 6,4 km/h (2 Bft) 100,00 %
09.12.2019 14:30 7,4 C 6,1 C 6,1 C 97 % 1001,4 hPa 0,0 l/m 0 min 0 min 51 W/m 12,9 km/h (3 Bft) 100,00 %
09.12.2019 14:32 7,4 C 6,1 C 6,1 C 96 % 1001,5 hPa 0,0 l/m 0 min 0 min 43 W/m 9,7 km/h (2 Bft) 100,00 %
09.12.2019 14:34 7,3 C 6,1 C 6,1 C 96 % 1001,5 hPa 0,0 l/m 0 min 0 min 46 W/m 9,7 km/h (2 Bft) 100,00 %
09.12.2019 14:36 7,3 C 6,1 C 5,6 C 96 % 1001,5 hPa 0,0 l/m 0 min 0 min 39 W/m 9,7 km/h (2 Bft) 100,00 %
09.12.2019 14:38 7,3 C 6,1 C 5,6 C 96 % 1001,5 hPa 0,0 l/m 0 min 0 min 32 W/m 6,4 km/h (2 Bft) 97,87 %
09.12.2019 14:40 7,3 C 6,1 C 5,6 C 96 % 1001,6 hPa 0,0 l/m 0 min 0 min 31 W/m 6,4 km/h (2 Bft) 97,87 %
09.12.2019 14:42 7,3 C 6,1 C 5,6 C 96 % 1001,6 hPa 0,0 l/m 0 min 0 min 37 W/m 6,4 km/h (2 Bft) 100,00 %
09.12.2019 14:44 7,3 C 6,1 C 5,6 C 96 % 1001,7 hPa 0,0 l/m 0 min 0 min 40 W/m 3,2 km/h (1 Bft) 100,00 %
09.12.2019 14:46 7,3 C 6,1 C 5,6 C 96 % 1001,7 hPa 0,0 l/m 0 min 0 min 49 W/m 6,4 km/h (2 Bft) 100,00 %
09.12.2019 14:48 7,3 C 6,1 C 5,6 C 96 % 1001,7 hPa 0,0 l/m 0 min 0 min 52 W/m 6,4 km/h (2 Bft) 100,00 %
09.12.2019 14:50 7,3 C 6,1 C 6,1 C 96 % 1001,7 hPa 0,0 l/m 0 min 0 min 53 W/m 3,2 km/h (1 Bft) 97,87 %
09.12.2019 14:52 7,3 C 6,1 C 6,1 C 96 % 1001,8 hPa 0,0 l/m 0 min 0 min 43 W/m 3,2 km/h (1 Bft) 97,83 %
09.12.2019 14:54 7,3 C 6,1 C 6,1 C 96 % 1001,9 hPa 0,0 l/m 0 min 0 min 40 W/m 3,2 km/h (1 Bft) 97,87 %
09.12.2019 14:56 7,3 C 6,1 C 6,1 C 96 % 1001,9 hPa 0,0 l/m 0 min 0 min 38 W/m 3,2 km/h (1 Bft) 95,74 %
09.12.2019 14:58 7,3 C 6,1 C 6,1 C 96 % 1001,9 hPa 0,0 l/m 0 min 0 min 33 W/m 3,2 km/h (1 Bft) 97,87 %
09.12.2019 15:00 7,3 C 6,1 C 6,1 C 96 % 1002,0 hPa 0,0 l/m 0 min 0 min 28 W/m 0,0 km/h (0 Bft) 97,87 %
09.12.2019 15:02 7,3 C 6,1 C 5,6 C 96 % 1002,0 hPa 0,0 l/m 0 min 0 min 24 W/m 3,2 km/h (1 Bft) 97,87 %
09.12.2019 15:04 7,3 C 6,1 C 5,6 C 96 % 1002,1 hPa 0,0 l/m 0 min 0 min 20 W/m 3,2 km/h (1 Bft) 95,65 %
09.12.2019 15:06 7,3 C 6,1 C 5,6 C 96 % 1002,2 hPa 0,0 l/m 0 min 0 min 15 W/m 0,0 km/h (0 Bft) 95,74 %
09.12.2019 15:08 7,3 C 6,1 C 5,6 C 96 % 1002,2 hPa 0,0 l/m 0 min 0 min 12 W/m 0,0 km/h (0 Bft) 95,74 %
09.12.2019 15:10 7,3 C 6,1 C 5,6 C 96 % 1002,3 hPa 0,0 l/m 0 min 0 min 12 W/m 3,2 km/h (1 Bft) 97,87 %
09.12.2019 15:12 7,3 C 6,1 C 5,6 C 96 % 1002,3 hPa 0,0 l/m 0 min 0 min 16 W/m 0,0 km/h (0 Bft) 97,87 %
09.12.2019 15:14 7,3 C 6,1 C 5,6 C 96 % 1002,4 hPa 0,0 l/m 0 min 0 min 21 W/m 3,2 km/h (1 Bft) 95,74 %
09.12.2019 15:16 7,3 C 6,1 C 5,6 C 96 % 1002,4 hPa 0,0 l/m 0 min 0 min 22 W/m 0,0 km/h (0 Bft) 91,30 %
09.12.2019 15:18 7,3 C 6,1 C 5,6 C 96 % 1002,5 hPa 0,0 l/m 0 min 0 min 16 W/m 0,0 km/h (0 Bft) 97,87 %
09.12.2019 15:20 7,3 C 6,1 C 5,6 C 96 % 1002,6 hPa 0,0 l/m 0 min 0 min 13 W/m 0,0 km/h (0 Bft) 95,74 %
09.12.2019 15:22 7,2 C 6,1 C 5,6 C 96 % 1002,7 hPa 0,0 l/m 0 min 0 min 12 W/m 0,0 km/h (0 Bft) 93,62 %
09.12.2019 15:24 7,2 C 6,1 C 5,6 C 96 % 1002,7 hPa 0,0 l/m 0 min 0 min 9 W/m 3,2 km/h (1 Bft) 95,74 %
09.12.2019 15:26 7,2 C 6,1 C 5,6 C 96 % 1002,7 hPa 0,0 l/m 0 min 0 min 12 W/m 3,2 km/h (1 Bft) 93,62 %
09.12.2019 15:28 7,2 C 6,1 C 5,6 C 96 % 1002,7 hPa 0,0 l/m 0 min 0 min 12 W/m 3,2 km/h (1 Bft) 95,65 %
09.12.2019 15:30 7,2 C 6,1 C 5,6 C 96 % 1002,9 hPa 0,0 l/m 0 min 0 min 9 W/m 3,2 km/h (1 Bft) 95,74 %
09.12.2019 15:32 7,2 C 6,1 C 5,6 C 96 % 1002,9 hPa 0,0 l/m 0 min 0 min 9 W/m 0,0 km/h (0 Bft) 95,74 %
09.12.2019 15:34 7,2 C 6,1 C 5,6 C 96 % 1003,0 hPa 0,0 l/m 0 min 0 min 8 W/m 0,0 km/h (0 Bft) 95,74 %
09.12.2019 15:36 7,2 C 6,1 C 5,6 C 96 % 1003,0 hPa 0,0 l/m 0 min 0 min 8 W/m 0,0 km/h (0 Bft) 95,74 %
09.12.2019 15:38 7,2 C 6,1 C 5,6 C 96 % 1003,0 hPa 0,0 l/m 0 min 0 min 7 W/m 0,0 km/h (0 Bft) 91,30 %
09.12.2019 15:40 7,2 C 6,1 C 5,6 C 96 % 1003,1 hPa 0,0 l/m 0 min 0 min 7 W/m 3,2 km/h (1 Bft) 95,74 %
09.12.2019 15:42 7,2 C 6,1 C 5,6 C 96 % 1003,1 hPa 0,0 l/m 0 min 2 min 6 W/m 3,2 km/h (1 Bft) 97,87 %
09.12.2019 15:44 7,2 C 6,1 C 5,6 C 96 % 1003,3 hPa 0,0 l/m 0 min 2 min 5 W/m 0,0 km/h (0 Bft) 95,74 %
09.12.2019 15:46 7,2 C 6,1 C 5,6 C 96 % 1003,3 hPa 0,0 l/m 0 min 2 min 5 W/m 3,2 km/h (1 Bft) 91,49 %
09.12.2019 15:48 7,2 C 6,1 C 5,6 C 96 % 1003,4 hPa 0,0 l/m 0 min 2 min 1 W/m 3,2 km/h (1 Bft) 95,74 %
09.12.2019 15:50 7,2 C 6,1 C 5,6 C 96 % 1003,4 hPa 0,0 l/m 0 min 2 min 5 W/m 6,4 km/h (2 Bft) 91,30 %
09.12.2019 15:52 7,2 C 6,1 C 5,6 C 96 % 1003,4 hPa 0,0 l/m 0 min 2 min 3 W/m 0,0 km/h (0 Bft) 95,74 %
09.12.2019 15:54 7,2 C 6,1 C 5,6 C 96 % 1003,5 hPa 0,2 l/m 0 min 2 min 0 W/m 0,0 km/h (0 Bft) 95,74 %
09.12.2019 15:56 7,2 C 6,1 C 5,6 C 96 % 1003,6 hPa 0,0 l/m 0 min 2 min 0 W/m 0,0 km/h (0 Bft) 97,87 %
09.12.2019 15:58 7,2 C 6,1 C 5,6 C 96 % 1003,7 hPa 0,0 l/m 0 min 2 min 0 W/m 0,0 km/h (0 Bft) 95,74 %
09.12.2019 16:00 7,2 C 6,1 C 5,6 C 96 % 1003,8 hPa 0,0 l/m 0 min 2 min 0 W/m 0,0 km/h (0 Bft) 95,74 %
09.12.2019 16:02 7,2 C 6,1 C 5,6 C 96 % 1003,9 hPa 0,2 l/m 0 min 2 min 0 W/m 0,0 km/h (0 Bft) 93,48 %
09.12.2019 16:04 7,2 C 6,1 C 5,6 C 96 % 1004,0 hPa 0,0 l/m 0 min 2 min 0 W/m 0,0 km/h (0 Bft) 95,74 %
09.12.2019 16:06 7,1 C 5,6 C 5,6 C 96 % 1004,1 hPa 0,0 l/m 0 min 2 min 0 W/m 3,2 km/h (1 Bft) 93,62 %
09.12.2019 16:08 7,1 C 5,6 C 5,6 C 96 % 1004,1 hPa 0,2 l/m 0 min 2 min 0 W/m 0,0 km/h (0 Bft) 93,62 %
09.12.2019 16:10 7,1 C 5,6 C 5,6 C 96 % 1004,2 hPa 0,0 l/m 0 min 2 min 0 W/m 3,2 km/h (1 Bft) 95,74 %
09.12.2019 16:12 7,1 C 5,6 C 5,6 C 96 % 1004,2 hPa 0,0 l/m 0 min 2 min 0 W/m 0,0 km/h (0 Bft) 97,87 %
09.12.2019 16:14 7,1 C 5,6 C 5,6 C 96 % 1004,3 hPa 0,0 l/m 0 min 2 min 0 W/m 3,2 km/h (1 Bft) 97,83 %
09.12.2019 16:16 7,1 C 5,6 C 5,6 C 96 % 1004,3 hPa 0,0 l/m 0 min 2 min 0 W/m 0,0 km/h (0 Bft) 97,87 %
09.12.2019 16:18 7,1 C 5,6 C 5,6 C 97 % 1004,4 hPa 0,0 l/m 0 min 0 min 0 W/m 6,4 km/h (2 Bft) 97,87 %
09.12.2019 16:20 7,1 C 5,6 C 5,6 C 97 % 1004,5 hPa 0,0 l/m 0 min 0 min 0 W/m 9,7 km/h (2 Bft) 97,87 %
09.12.2019 16:22 7,1 C 5,6 C 5,6 C 97 % 1004,5 hPa 0,0 l/m 0 min 2 min 0 W/m 6,4 km/h (2 Bft) 97,87 %
09.12.2019 16:24 7,1 C 5,6 C 5,6 C 97 % 1004,6 hPa 0,0 l/m 0 min 2 min 0 W/m 6,4 km/h (2 Bft) 95,74 %
09.12.2019 16:26 7,1 C 5,6 C 5,6 C 97 % 1004,6 hPa 0,0 l/m 0 min 0 min 0 W/m 9,7 km/h (2 Bft) 97,83 %
09.12.2019 16:28 7,1 C 5,6 C 5,6 C 97 % 1004,6 hPa 0,0 l/m 0 min 0 min 0 W/m 6,4 km/h (2 Bft) 97,87 %
09.12.2019 16:30 7,1 C 5,6 C 5,6 C 96 % 1004,7 hPa 0,0 l/m 0 min 0 min 0 W/m 6,4 km/h (2 Bft) 97,87 %
09.12.2019 16:32 7,0 C 5,6 C 5,6 C 97 % 1004,7 hPa 0,0 l/m 0 min 0 min 0 W/m 9,7 km/h (2 Bft) 97,87 %
09.12.2019 16:34 7,0 C 5,6 C 5,6 C 97 % 1004,8 hPa 0,0 l/m 0 min 2 min 0 W/m 9,7 km/h (2 Bft) 97,87 %
09.12.2019 16:36 7,0 C 5,6 C 5,0 C 97 % 1004,9 hPa 0,0 l/m 0 min 2 min 0 W/m 16,1 km/h (3 Bft) 95,65 %
09.12.2019 16:38 6,9 C 5,6 C 5,0 C 97 % 1005,0 hPa 0,0 l/m 0 min 0 min 0 W/m 9,7 km/h (2 Bft) 97,87 %
09.12.2019 16:40 6,9 C 5,6 C 5,0 C 97 % 1005,1 hPa 0,0 l/m 0 min 0 min 0 W/m 16,1 km/h (3 Bft) 100,00 %
09.12.2019 16:42 6,9 C 5,6 C 5,0 C 97 % 1005,2 hPa 0,0 l/m 0 min 0 min 0 W/m 9,7 km/h (2 Bft) 95,74 %
09.12.2019 16:44 6,8 C 5,6 C 5,0 C 97 % 1005,2 hPa 0,0 l/m 0 min 0 min 0 W/m 16,1 km/h (3 Bft) 100,00 %
09.12.2019 16:46 6,8 C 5,6 C 5,0 C 97 % 1005,4 hPa 0,0 l/m 0 min 0 min 0 W/m 16,1 km/h (3 Bft) 97,87 %
09.12.2019 16:48 6,8 C 5,6 C 5,0 C 97 % 1005,6 hPa 0,0 l/m 0 min 0 min 0 W/m 19,3 km/h (3 Bft) 100,00 %
09.12.2019 16:50 6,8 C 5,6 C 5,0 C 97 % 1005,7 hPa 0,2 l/m 0 min 0 min 0 W/m 16,1 km/h (3 Bft) 100,00 %
09.12.2019 16:52 6,7 C 5,6 C 5,0 C 97 % 1005,8 hPa 0,0 l/m 0 min 0 min 0 W/m 19,3 km/h (3 Bft) 100,00 %
09.12.2019 16:54 6,7 C 5,6 C 5,0 C 97 % 1005,9 hPa 0,0 l/m 0 min 2 min 0 W/m 16,1 km/h (3 Bft) 100,00 %
09.12.2019 16:56 6,7 C 5,6 C 5,0 C 97 % 1006,0 hPa 0,0 l/m 0 min 0 min 0 W/m 16,1 km/h (3 Bft) 100,00 %
09.12.2019 16:58 6,7 C 5,6 C 5,0 C 97 % 1006,0 hPa 0,0 l/m 0 min 0 min 0 W/m 16,1 km/h (3 Bft) 97,87 %
09.12.2019 17:00 6,7 C 5,6 C 5,0 C 97 % 1006,1 hPa 0,0 l/m 0 min 0 min 0 W/m 16,1 km/h (3 Bft) 100,00 %
09.12.2019 17:02 6,7 C 5,6 C 5,0 C 97 % 1006,2 hPa 0,0 l/m 0 min 0 min 0 W/m 9,7 km/h (2 Bft) 97,87 %
09.12.2019 17:04 6,7 C 5,6 C 5,0 C 97 % 1006,3 hPa 0,0 l/m 0 min 0 min 0 W/m 16,1 km/h (3 Bft) 100,00 %
09.12.2019 17:06 6,7 C 5,6 C 5,0 C 97 % 1006,5 hPa 0,0 l/m 0 min 2 min 0 W/m 16,1 km/h (3 Bft) 100,00 %
09.12.2019 17:08 6,7 C 5,6 C 5,0 C 97 % 1006,6 hPa 0,2 l/m 0 min 2 min 0 W/m 25,7 km/h (4 Bft) 100,00 %
09.12.2019 17:10 6,7 C 5,6 C 5,0 C 97 % 1006,6 hPa 0,0 l/m 0 min 2 min 0 W/m 16,1 km/h (3 Bft) 100,00 %
09.12.2019 17:12 6,7 C 5,6 C 5,0 C 97 % 1006,7 hPa 0,2 l/m 0 min 2 min 0 W/m 16,1 km/h (3 Bft) 100,00 %
09.12.2019 17:14 6,7 C 5,6 C 5,0 C 97 % 1006,8 hPa 0,0 l/m 0 min 2 min 0 W/m 29,0 km/h (5 Bft) 100,00 %
09.12.2019 17:16 6,7 C 5,6 C 5,0 C 97 % 1006,9 hPa 0,0 l/m 0 min 2 min 0 W/m 19,3 km/h (3 Bft) 97,87 %
09.12.2019 17:18 6,7 C 5,6 C 5,0 C 98 % 1007,0 hPa 0,0 l/m 0 min 2 min 0 W/m 29,0 km/h (5 Bft) 100,00 %
09.12.2019 17:20 6,6 C 5,6 C 5,0 C 98 % 1007,1 hPa 0,0 l/m 0 min 2 min 0 W/m 38,6 km/h (5 Bft) 100,00 %
09.12.2019 17:22 6,6 C 5,6 C 5,0 C 98 % 1007,1 hPa 0,0 l/m 0 min 0 min 0 W/m 32,2 km/h (5 Bft) 100,00 %
09.12.2019 17:24 6,6 C 5,6 C 5,0 C 97 % 1007,2 hPa 0,0 l/m 0 min 0 min 0 W/m 29,0 km/h (5 Bft) 100,00 %
09.12.2019 17:26 6,5 C 5,6 C 5,0 C 97 % 1007,4 hPa 0,0 l/m 0 min 0 min 0 W/m 29,0 km/h (5 Bft) 100,00 %
09.12.2019 17:28 6,5 C 5,6 C 5,0 C 97 % 1007,4 hPa 0,0 l/m 0 min 0 min 0 W/m 25,7 km/h (4 Bft) 100,00 %
09.12.2019 17:30 6,5 C 5,6 C 5,0 C 97 % 1007,5 hPa 0,0 l/m 0 min 0 min 0 W/m 22,5 km/h (4 Bft) 97,87 %
09.12.2019 17:32 6,5 C 5,6 C 5,0 C 97 % 1007,6 hPa 0,0 l/m 0 min 0 min 0 W/m 38,6 km/h (5 Bft) 100,00 %
09.12.2019 17:34 6,4 C 5,6 C 5,0 C 97 % 1007,8 hPa 0,0 l/m 0 min 0 min 0 W/m 22,5 km/h (4 Bft) 97,87 %
09.12.2019 17:36 6,4 C 5,6 C 5,0 C 98 % 1007,8 hPa 0,0 l/m 0 min 0 min 0 W/m 25,7 km/h (4 Bft) 97,83 %
09.12.2019 17:38 6,4 C 5,6 C 5,0 C 98 % 1008,0 hPa 0,0 l/m 0 min 2 min 0 W/m 22,5 km/h (4 Bft) 97,87 %
09.12.2019 17:40 6,4 C 5,6 C 5,0 C 98 % 1008,1 hPa 0,0 l/m 0 min 2 min 0 W/m 25,7 km/h (4 Bft) 95,74 %
09.12.2019 17:42 6,4 C 5,0 C 5,0 C 98 % 1008,2 hPa 0,0 l/m 0 min 2 min 0 W/m 29,0 km/h (5 Bft) 95,74 %
09.12.2019 17:44 6,4 C 5,0 C 5,0 C 98 % 1008,3 hPa 0,0 l/m 0 min 2 min 0 W/m 38,6 km/h (5 Bft) 95,74 %
09.12.2019 17:46 6,3 C 5,0 C 5,0 C 98 % 1008,4 hPa 0,0 l/m 0 min 2 min 0 W/m 19,3 km/h (3 Bft) 97,87 %
09.12.2019 17:48 6,3 C 5,0 C 5,0 C 98 % 1008,6 hPa 0,0 l/m 0 min 2 min 0 W/m 16,1 km/h (3 Bft) 95,65 %
09.12.2019 17:50 6,3 C 5,0 C 5,0 C 98 % 1008,7 hPa 0,0 l/m 0 min 0 min 0 W/m 16,1 km/h (3 Bft) 95,74 %
09.12.2019 17:52 6,3 C 5,0 C 5,0 C 98 % 1008,8 hPa 0,0 l/m 0 min 2 min 0 W/m 25,7 km/h (4 Bft) 95,74 %
09.12.2019 17:54 6,3 C 5,0 C 5,0 C 98 % 1008,9 hPa 0,0 l/m 0 min 2 min 0 W/m 29,0 km/h (5 Bft) 97,87 %
09.12.2019 17:56 6,3 C 5,0 C 5,0 C 98 % 1009,0 hPa 0,0 l/m 0 min 2 min 0 W/m 16,1 km/h (3 Bft) 97,87 %
09.12.2019 17:58 6,3 C 5,0 C 5,0 C 98 % 1009,1 hPa 0,0 l/m 0 min 2 min 0 W/m 22,5 km/h (4 Bft) 95,65 %
09.12.2019 18:00 6,3 C 5,0 C 5,0 C 98 % 1009,2 hPa 0,0 l/m 0 min 2 min 0 W/m 22,5 km/h (4 Bft) 93,62 %
09.12.2019 18:02 6,3 C 5,0 C 5,0 C 98 % 1009,3 hPa 0,0 l/m 0 min 2 min 0 W/m 16,1 km/h (3 Bft) 95,74 %
09.12.2019 18:04 6,2 C 5,0 C 5,0 C 98 % 1009,4 hPa 0,0 l/m 0 min 2 min 0 W/m 22,5 km/h (4 Bft) 95,74 %
09.12.2019 18:08 6,2 C 5,0 C 4,4 C 98 % 1009,6 hPa 0,0 l/m 0 min 4 min 0 W/m 25,7 km/h (4 Bft) 94,68 %
09.12.2019 18:10 6,2 C 5,0 C 4,4 C 98 % 1009,8 hPa 0,0 l/m 0 min 2 min 0 W/m 22,5 km/h (4 Bft) 95,65 %
09.12.2019 18:12 6,2 C 5,0 C 5,0 C 98 % 1009,8 hPa 0,0 l/m 0 min 2 min 0 W/m 19,3 km/h (3 Bft) 95,74 %
09.12.2019 18:14 6,2 C 5,0 C 5,0 C 98 % 1009,9 hPa 0,0 l/m 0 min 2 min 0 W/m 19,3 km/h (3 Bft) 95,74 %
09.12.2019 18:16 6,2 C 5,0 C 5,0 C 98 % 1010,0 hPa 0,0 l/m 0 min 2 min 0 W/m 25,7 km/h (4 Bft) 93,62 %
09.12.2019 18:18 6,2 C 5,0 C 5,0 C 98 % 1010,1 hPa 0,0 l/m 0 min 2 min 0 W/m 9,7 km/h (2 Bft) 97,87 %
09.12.2019 18:20 6,2 C 5,0 C 4,4 C 98 % 1010,2 hPa 0,0 l/m 0 min 0 min 0 W/m 9,7 km/h (2 Bft) 97,87 %
09.12.2019 18:22 6,2 C 5,0 C 4,4 C 98 % 1010,2 hPa 0,0 l/m 0 min 0 min 0 W/m 16,1 km/h (3 Bft) 95,65 %
09.12.2019 18:24 6,2 C 5,0 C 4,4 C 98 % 1010,3 hPa 0,0 l/m 0 min 0 min 0 W/m 12,9 km/h (3 Bft) 97,87 %
09.12.2019 18:26 6,2 C 5,0 C 4,4 C 98 % 1010,4 hPa 0,0 l/m 0 min 0 min 0 W/m 6,4 km/h (2 Bft) 95,74 %
09.12.2019 18:28 6,2 C 5,0 C 4,4 C 98 % 1010,5 hPa 0,0 l/m 0 min 0 min 0 W/m 12,9 km/h (3 Bft) 97,87 %
09.12.2019 18:30 6,2 C 5,0 C 4,4 C 98 % 1010,6 hPa 0,0 l/m 0 min 2 min 0 W/m 16,1 km/h (3 Bft) 97,87 %
09.12.2019 18:32 6,1 C 5,0 C 4,4 C 98 % 1010,7 hPa 0,0 l/m 0 min 0 min 0 W/m 19,3 km/h (3 Bft) 95,74 %
09.12.2019 18:34 6,1 C 5,0 C 4,4 C 98 % 1010,8 hPa 0,0 l/m 0 min 0 min 0 W/m 12,9 km/h (3 Bft) 97,83 %
09.12.2019 18:36 6,1 C 5,0 C 4,4 C 98 % 1010,8 hPa 0,0 l/m 0 min 0 min 0 W/m 16,1 km/h (3 Bft) 95,74 %
09.12.2019 18:38 6,1 C 5,0 C 4,4 C 98 % 1010,9 hPa 0,0 l/m 0 min 0 min 0 W/m 16,1 km/h (3 Bft) 97,87 %
09.12.2019 18:40 6,1 C 5,0 C 4,4 C 98 % 1011,1 hPa 0,0 l/m 0 min 0 min 0 W/m 19,3 km/h (3 Bft) 97,87 %
09.12.2019 18:42 6,1 C 5,0 C 4,4 C 98 % 1011,1 hPa 0,0 l/m 0 min 0 min 0 W/m 16,1 km/h (3 Bft) 95,74 %
09.12.2019 18:44 6,1 C 5,0 C 4,4 C 98 % 1011,3 hPa 0,0 l/m 0 min 2 min 0 W/m 22,5 km/h (4 Bft) 97,87 %
09.12.2019 18:46 6,1 C 5,0 C 4,4 C 98 % 1011,3 hPa 0,0 l/m 0 min 2 min 0 W/m 25,7 km/h (4 Bft) 97,83 %
09.12.2019 18:48 6,0 C 5,0 C 4,4 C 98 % 1011,3 hPa 0,0 l/m 0 min 0 min 0 W/m 22,5 km/h (4 Bft) 97,87 %
09.12.2019 18:50 6,0 C 5,0 C 4,4 C 98 % 1011,4 hPa 0,0 l/m 0 min 0 min 0 W/m 19,3 km/h (3 Bft) 97,87 %
09.12.2019 18:52 6,0 C 5,0 C 4,4 C 98 % 1011,5 hPa 0,0 l/m 0 min 0 min 0 W/m 19,3 km/h (3 Bft) 100,00 %
09.12.2019 18:54 5,9 C 5,0 C 4,4 C 98 % 1011,6 hPa 0,0 l/m 0 min 0 min 0 W/m 19,3 km/h (3 Bft) 100,00 %
09.12.2019 18:56 5,9 C 5,0 C 4,4 C 98 % 1011,7 hPa 0,0 l/m 0 min 0 min 0 W/m 19,3 km/h (3 Bft) 100,00 %
09.12.2019 18:58 5,9 C 4,4 C 4,4 C 98 % 1011,9 hPa 0,0 l/m 0 min 0 min 0 W/m 16,1 km/h (3 Bft) 100,00 %
09.12.2019 19:00 5,9 C 4,4 C 4,4 C 98 % 1011,9 hPa 0,0 l/m 0 min 0 min 0 W/m 16,1 km/h (3 Bft) 100,00 %
09.12.2019 19:02 5,9 C 4,4 C 4,4 C 98 % 1012,0 hPa 0,0 l/m 0 min 0 min 0 W/m 16,1 km/h (3 Bft) 100,00 %
09.12.2019 19:04 5,8 C 4,4 C 4,4 C 98 % 1012,1 hPa 0,0 l/m 0 min 0 min 0 W/m 12,9 km/h (3 Bft) 97,87 %
09.12.2019 19:06 5,8 C 4,4 C 3,9 C 97 % 1012,1 hPa 0,0 l/m 0 min 0 min 0 W/m 22,5 km/h (4 Bft) 93,62 %
09.12.2019 19:08 5,8 C 4,4 C 3,9 C 97 % 1012,2 hPa 0,0 l/m 0 min 0 min 0 W/m 12,9 km/h (3 Bft) 100,00 %
09.12.2019 19:10 5,8 C 4,4 C 3,9 C 97 % 1012,2 hPa 0,0 l/m 0 min 0 min 0 W/m 22,5 km/h (4 Bft) 97,87 %
09.12.2019 19:12 5,7 C 4,4 C 3,9 C 97 % 1012,2 hPa 0,0 l/m 0 min 0 min 0 W/m 25,7 km/h (4 Bft) 97,87 %
09.12.2019 19:14 5,7 C 4,4 C 3,9 C 97 % 1012,3 hPa 0,0 l/m 0 min 0 min 0 W/m 22,5 km/h (4 Bft) 95,74 %
09.12.2019 19:16 5,7 C 4,4 C 3,9 C 97 % 1012,4 hPa 0,0 l/m 0 min 0 min 0 W/m 22,5 km/h (4 Bft) 95,74 %
09.12.2019 19:18 5,6 C 4,4 C 3,9 C 97 % 1012,5 hPa 0,0 l/m 0 min 0 min 0 W/m 22,5 km/h (4 Bft) 97,87 %
09.12.2019 19:20 5,6 C 4,4 C 3,9 C 97 % 1012,5 hPa 0,0 l/m 0 min 0 min 0 W/m 19,3 km/h (3 Bft) 97,83 %
09.12.2019 19:22 5,6 C 4,4 C 3,9 C 97 % 1012,6 hPa 0,0 l/m 0 min 0 min 0 W/m 25,7 km/h (4 Bft) 97,87 %
09.12.2019 19:24 5,5 C 3,9 C 3,9 C 97 % 1012,7 hPa 0,0 l/m 0 min 0 min 0 W/m 19,3 km/h (3 Bft) 97,87 %
09.12.2019 19:26 5,5 C 3,9 C 3,9 C 97 % 1012,8 hPa 0,0 l/m 0 min 0 min 0 W/m 22,5 km/h (4 Bft) 97,87 %
09.12.2019 19:28 5,4 C 3,9 C 3,9 C 97 % 1012,9 hPa 0,0 l/m 0 min 0 min 0 W/m 19,3 km/h (3 Bft) 97,87 %
09.12.2019 19:30 5,4 C 3,9 C 3,9 C 97 % 1012,9 hPa 0,0 l/m 0 min 0 min 0 W/m 12,9 km/h (3 Bft) 97,87 %
09.12.2019 19:32 5,4 C 3,9 C 3,3 C 97 % 1013,0 hPa 0,0 l/m 0 min 0 min 0 W/m 22,5 km/h (4 Bft) 97,83 %
09.12.2019 19:34 5,3 C 3,9 C 3,3 C 97 % 1013,1 hPa 0,0 l/m 0 min 0 min 0 W/m 19,3 km/h (3 Bft) 95,74 %
09.12.2019 19:36 5,3 C 3,9 C 3,3 C 97 % 1013,2 hPa 0,0 l/m 0 min 0 min 0 W/m 16,1 km/h (3 Bft) 97,87 %
09.12.2019 19:38 5,3 C 3,9 C 3,3 C 97 % 1013,3 hPa 0,0 l/m 0 min 0 min 0 W/m 16,1 km/h (3 Bft) 97,87 %
09.12.2019 19:40 5,3 C 3,9 C 3,3 C 97 % 1013,3 hPa 0,0 l/m 0 min 0 min 0 W/m 16,1 km/h (3 Bft) 97,87 %
09.12.2019 19:42 5,2 C 3,9 C 3,3 C 97 % 1013,4 hPa 0,0 l/m 0 min 0 min 0 W/m 12,9 km/h (3 Bft) 97,87 %
09.12.2019 19:44 5,2 C 3,9 C 3,3 C 97 % 1013,4 hPa 0,0 l/m 0 min 0 min 0 W/m 16,1 km/h (3 Bft) 97,83 %
09.12.2019 19:46 5,2 C 3,9 C 3,3 C 96 % 1013,6 hPa 0,0 l/m 0 min 0 min 0 W/m 16,1 km/h (3 Bft) 97,87 %
09.12.2019 19:48 5,1 C 3,9 C 3,3 C 96 % 1013,7 hPa 0,0 l/m 0 min 0 min 0 W/m 12,9 km/h (3 Bft) 97,87 %
09.12.2019 19:50 5,1 C 3,9 C 3,3 C 96 % 1013,8 hPa 0,0 l/m 0 min 0 min 0 W/m 16,1 km/h (3 Bft) 97,87 %
09.12.2019 19:52 5,1 C 3,9 C 3,3 C 96 % 1013,9 hPa 0,0 l/m 0 min 0 min 0 W/m 9,7 km/h (2 Bft) 97,87 %
09.12.2019 19:54 5,1 C 3,9 C 3,3 C 96 % 1014,0 hPa 0,0 l/m 0 min 0 min 0 W/m 9,7 km/h (2 Bft) 97,87 %
09.12.2019 19:56 5,1 C 3,9 C 3,3 C 96 % 1014,1 hPa 0,0 l/m 0 min 0 min 0 W/m 6,4 km/h (2 Bft) 93,48 %
09.12.2019 19:58 5,0 C 3,9 C 3,3 C 96 % 1014,1 hPa 0,0 l/m 0 min 0 min 0 W/m 9,7 km/h (2 Bft) 95,74 %
09.12.2019 20:00 5,0 C 3,9 C 3,3 C 96 % 1014,2 hPa 0,0 l/m 0 min 0 min 0 W/m 22,5 km/h (4 Bft) 97,87 %
09.12.2019 20:02 4,9 C 3,3 C 3,3 C 96 % 1014,2 hPa 0,0 l/m 0 min 0 min 0 W/m 12,9 km/h (3 Bft) 97,87 %
09.12.2019 20:04 4,9 C 3,9 C 3,3 C 96 % 1014,3 hPa 0,0 l/m 0 min 0 min 0 W/m 12,9 km/h (3 Bft) 95,74 %
09.12.2019 20:06 4,9 C 3,3 C 3,3 C 96 % 1014,4 hPa 0,0 l/m 0 min 0 min 0 W/m 19,3 km/h (3 Bft) 97,87 %
09.12.2019 20:08 4,9 C 3,3 C 3,3 C 96 % 1014,5 hPa 0,0 l/m 0 min 0 min 0 W/m 12,9 km/h (3 Bft) 97,83 %
09.12.2019 20:10 4,9 C 3,3 C 3,3 C 96 % 1014,5 hPa 0,0 l/m 0 min 0 min 0 W/m 12,9 km/h (3 Bft) 97,87 %
09.12.2019 20:12 4,8 C 3,3 C 2,8 C 96 % 1014,5 hPa 0,0 l/m 0 min 0 min 0 W/m 12,9 km/h (3 Bft) 95,74 %
09.12.2019 20:14 4,8 C 3,3 C 3,3 C 96 % 1014,6 hPa 0,0 l/m 0 min 0 min 0 W/m 19,3 km/h (3 Bft) 100,00 %
09.12.2019 20:16 4,8 C 3,3 C 3,3 C 96 % 1014,7 hPa 0,0 l/m 0 min 0 min 0 W/m 16,1 km/h (3 Bft) 100,00 %
09.12.2019 20:18 4,8 C 3,3 C 2,8 C 96 % 1014,8 hPa 0,0 l/m 0 min 0 min 0 W/m 6,4 km/h (2 Bft) 95,65 %
09.12.2019 20:20 4,8 C 3,3 C 2,8 C 96 % 1014,8 hPa 0,0 l/m 0 min 0 min 0 W/m 19,3 km/h (3 Bft) 95,74 %
09.12.2019 20:22 4,8 C 3,3 C 3,3 C 96 % 1014,9 hPa 0,0 l/m 0 min 0 min 0 W/m 19,3 km/h (3 Bft) 95,74 %
09.12.2019 20:24 4,7 C 3,3 C 2,8 C 96 % 1014,9 hPa 0,0 l/m 0 min 0 min 0 W/m 19,3 km/h (3 Bft) 97,87 %
09.12.2019 20:26 4,7 C 3,3 C 2,8 C 96 % 1015,0 hPa 0,0 l/m 0 min 0 min 0 W/m 12,9 km/h (3 Bft) 95,74 %
09.12.2019 20:28 4,7 C 3,3 C 2,8 C 96 % 1015,0 hPa 0,0 l/m 0 min 0 min 0 W/m 9,7 km/h (2 Bft) 95,83 %
09.12.2019 20:30 4,7 C 3,3 C 2,8 C 96 % 1015,1 hPa 0,0 l/m 0 min 0 min 0 W/m 6,4 km/h (2 Bft) 95,74 %
09.12.2019 20:32 4,7 C 3,3 C 2,8 C 96 % 1015,2 hPa 0,0 l/m 0 min 0 min 0 W/m 12,9 km/h (3 Bft) 97,92 %
09.12.2019 20:34 4,7 C 3,3 C 2,8 C 96 % 1015,2 hPa 0,0 l/m 0 min 0 min 0 W/m 19,3 km/h (3 Bft) 93,62 %
09.12.2019 20:36 4,6 C 3,3 C 2,8 C 95 % 1015,4 hPa 0,0 l/m 0 min 0 min 0 W/m 6,4 km/h (2 Bft) 95,74 %
09.12.2019 20:38 4,6 C 3,3 C 2,8 C 95 % 1015,5 hPa 0,0 l/m 0 min 0 min 0 W/m 16,1 km/h (3 Bft) 96,61 %
09.12.2019 20:40 4,6 C 3,3 C 2,8 C 95 % 1015,5 hPa 0,0 l/m 0 min 0 min 0 W/m 16,1 km/h (3 Bft) 97,14 %
09.12.2019 20:42 4,6 C 3,3 C 2,8 C 95 % 1015,6 hPa 0,0 l/m 0 min 0 min 0 W/m 19,3 km/h (3 Bft) 95,74 %
09.12.2019 20:44 4,6 C 3,3 C 2,8 C 95 % 1015,6 hPa 0,0 l/m 0 min 0 min 0 W/m 16,1 km/h (3 Bft) 95,74 %
09.12.2019 20:46 4,6 C 3,3 C 2,8 C 95 % 1015,8 hPa 0,0 l/m 0 min 0 min 0 W/m 19,3 km/h (3 Bft) 95,92 %
09.12.2019 20:48 4,6 C 3,3 C 2,8 C 95 % 1015,8 hPa 0,0 l/m 0 min 0 min 0 W/m 16,1 km/h (3 Bft) 93,62 %
09.12.2019 20:50 4,6 C 3,3 C 2,8 C 95 % 1015,9 hPa 0,0 l/m 0 min 0 min 0 W/m 12,9 km/h (3 Bft) 93,62 %
09.12.2019 20:52 4,5 C 3,3 C 2,8 C 95 % 1015,9 hPa 0,0 l/m 0 min 0 min 0 W/m 12,9 km/h (3 Bft) 97,87 %
09.12.2019 20:54 4,5 C 3,3 C 2,8 C 95 % 1015,9 hPa 0,0 l/m 0 min 0 min 0 W/m 16,1 km/h (3 Bft) 95,74 %
09.12.2019 20:56 4,5 C 3,3 C 2,8 C 95 % 1016,0 hPa 0,0 l/m 0 min 0 min 0 W/m 19,3 km/h (3 Bft) 95,12 %
09.12.2019 20:58 4,5 C 3,3 C 2,8 C 95 % 1016,1 hPa 0,0 l/m 0 min 0 min 0 W/m 19,3 km/h (3 Bft) 95,74 %
09.12.2019 21:00 4,5 C 3,3 C 2,8 C 95 % 1016,2 hPa 0,0 l/m 0 min 0 min 0 W/m 22,5 km/h (4 Bft) 95,74 %
09.12.2019 21:02 4,4 C 3,3 C 2,8 C 95 % 1016,2 hPa 0,0 l/m 0 min 0 min 0 W/m 19,3 km/h (3 Bft) 95,74 %
09.12.2019 21:04 4,4 C 3,3 C 2,8 C 95 % 1016,3 hPa 0,0 l/m 0 min 0 min 0 W/m 19,3 km/h (3 Bft) 95,65 %
09.12.2019 21:06 4,4 C 3,3 C 2,8 C 95 % 1016,3 hPa 0,0 l/m 0 min 0 min 0 W/m 16,1 km/h (3 Bft) 97,87 %
09.12.2019 21:08 4,4 C 3,3 C 2,8 C 95 % 1016,4 hPa 0,0 l/m 0 min 0 min 0 W/m 12,9 km/h (3 Bft) 97,87 %
09.12.2019 21:10 4,4 C 2,8 C 2,8 C 95 % 1016,4 hPa 0,0 l/m 0 min 0 min 0 W/m 9,7 km/h (2 Bft) 97,87 %
09.12.2019 21:12 4,4 C 2,8 C 2,8 C 94 % 1016,5 hPa 0,0 l/m 0 min 0 min 0 W/m 6,4 km/h (2 Bft) 95,74 %
09.12.2019 21:14 4,4 C 2,8 C 2,8 C 94 % 1016,5 hPa 0,0 l/m 0 min 0 min 0 W/m 6,4 km/h (2 Bft) 97,87 %
09.12.2019 21:16 4,3 C 2,8 C 2,8 C 94 % 1016,6 hPa 0,0 l/m 0 min 0 min 0 W/m 9,7 km/h (2 Bft) 100,00 %
09.12.2019 21:18 4,3 C 2,8 C 2,8 C 94 % 1016,7 hPa 0,0 l/m 0 min 0 min 0 W/m 16,1 km/h (3 Bft) 97,87 %
09.12.2019 21:20 4,3 C 2,8 C 2,8 C 94 % 1016,8 hPa 0,0 l/m 0 min 0 min 0 W/m 12,9 km/h (3 Bft) 100,00 %
09.12.2019 21:22 4,3 C 2,8 C 2,2 C 94 % 1016,9 hPa 0,0 l/m 0 min 0 min 0 W/m 9,7 km/h (2 Bft) 100,00 %
09.12.2019 21:24 4,3 C 2,8 C 2,2 C 94 % 1016,9 hPa 0,0 l/m 0 min 0 min 0 W/m 6,4 km/h (2 Bft) 100,00 %
09.12.2019 21:26 4,3 C 2,8 C 2,2 C 94 % 1016,9 hPa 0,0 l/m 0 min 0 min 0 W/m 9,7 km/h (2 Bft) 100,00 %
09.12.2019 21:28 4,2 C 2,8 C 2,2 C 94 % 1017,0 hPa 0,0 l/m 0 min 0 min 0 W/m 9,7 km/h (2 Bft) 97,87 %
09.12.2019 21:30 4,2 C 2,8 C 2,2 C 94 % 1017,0 hPa 0,0 l/m 0 min 0 min 0 W/m 9,7 km/h (2 Bft) 100,00 %
09.12.2019 21:32 4,2 C 2,8 C 2,2 C 94 % 1017,1 hPa 0,0 l/m 0 min 0 min 0 W/m 6,4 km/h (2 Bft) 100,00 %
09.12.2019 21:34 4,2 C 2,8 C 2,2 C 94 % 1017,2 hPa 0,0 l/m 0 min 0 min 0 W/m 6,4 km/h (2 Bft) 100,00 %
09.12.2019 21:36 4,2 C 2,8 C 2,2 C 94 % 1017,3 hPa 0,0 l/m 0 min 0 min 0 W/m 6,4 km/h (2 Bft) 97,87 %
09.12.2019 21:38 4,1 C 2,8 C 2,2 C 94 % 1017,4 hPa 0,0 l/m 0 min 0 min 0 W/m 6,4 km/h (2 Bft) 100,00 %
09.12.2019 21:40 4,1 C 2,8 C 2,2 C 94 % 1017,4 hPa 0,0 l/m 0 min 0 min 0 W/m 6,4 km/h (2 Bft) 100,00 %
09.12.2019 21:42 4,1 C 2,8 C 2,2 C 94 % 1017,4 hPa 0,0 l/m 0 min 0 min 0 W/m 6,4 km/h (2 Bft) 100,00 %
09.12.2019 21:44 4,1 C 2,8 C 2,2 C 94 % 1017,5 hPa 0,0 l/m 0 min 0 min 0 W/m 6,4 km/h (2 Bft) 100,00 %
09.12.2019 21:46 4,1 C 2,8 C 2,2 C 94 % 1017,6 hPa 0,0 l/m 0 min 0 min 0 W/m 6,4 km/h (2 Bft) 97,87 %
09.12.2019 21:48 4,0 C 2,2 C 2,2 C 94 % 1017,6 hPa 0,0 l/m 0 min 0 min 0 W/m 3,2 km/h (1 Bft) 100,00 %
09.12.2019 21:50 4,0 C 2,2 C 2,2 C 94 % 1017,6 hPa 0,0 l/m 0 min 0 min 0 W/m 9,7 km/h (2 Bft) 100,00 %
09.12.2019 21:52 3,9 C 2,8 C 2,2 C 94 % 1017,6 hPa 0,0 l/m 0 min 0 min 0 W/m 9,7 km/h (2 Bft) 100,00 %
09.12.2019 21:54 3,9 C 2,8 C 2,2 C 94 % 1017,7 hPa 0,0 l/m 0 min 0 min 0 W/m 6,4 km/h (2 Bft) 100,00 %
09.12.2019 21:56 3,9 C 2,8 C 2,2 C 94 % 1017,7 hPa 0,0 l/m 0 min 0 min 0 W/m 3,2 km/h (1 Bft) 100,00 %
09.12.2019 21:58 3,9 C 2,8 C 2,2 C 94 % 1017,8 hPa 0,0 l/m 0 min 0 min 0 W/m 9,7 km/h (2 Bft) 97,87 %
09.12.2019 22:00 3,8 C 2,2 C 2,2 C 94 % 1017,8 hPa 0,0 l/m 0 min 0 min 0 W/m 6,4 km/h (2 Bft) 97,87 %
09.12.2019 22:02 3,8 C 2,2 C 2,2 C 94 % 1017,9 hPa 0,0 l/m 0 min 0 min 0 W/m 9,7 km/h (2 Bft) 100,00 %
09.12.2019 22:04 3,8 C 2,2 C 2,2 C 94 % 1018,0 hPa 0,0 l/m 0 min 0 min 0 W/m 6,4 km/h (2 Bft) 100,00 %
09.12.2019 22:06 3,8 C 2,2 C 2,2 C 94 % 1018,1 hPa 0,0 l/m 0 min 0 min 0 W/m 3,2 km/h (1 Bft) 100,00 %
09.12.2019 22:08 3,8 C 2,2 C 2,2 C 94 % 1018,2 hPa 0,0 l/m 0 min 0 min 0 W/m 12,9 km/h (3 Bft) 100,00 %
09.12.2019 22:10 3,8 C 2,2 C 1,7 C 94 % 1018,3 hPa 0,0 l/m 0 min 0 min 0 W/m 12,9 km/h (3 Bft) 100,00 %
09.12.2019 22:12 3,8 C 2,2 C 1,7 C 94 % 1018,3 hPa 0,0 l/m 0 min 0 min 0 W/m 3,2 km/h (1 Bft) 100,00 %
09.12.2019 22:14 3,7 C 2,2 C 1,7 C 94 % 1018,3 hPa 0,0 l/m 0 min 0 min 0 W/m 9,7 km/h (2 Bft) 100,00 %
09.12.2019 22:16 3,7 C 2,2 C 1,7 C 94 % 1018,3 hPa 0,0 l/m 0 min 0 min 0 W/m 3,2 km/h (1 Bft) 100,00 %
09.12.2019 22:18 3,7 C 2,2 C 1,7 C 94 % 1018,4 hPa 0,0 l/m 0 min 0 min 0 W/m 3,2 km/h (1 Bft) 100,00 %
09.12.2019 22:20 3,7 C 2,2 C 1,7 C 94 % 1018,5 hPa 0,0 l/m 0 min 0 min 0 W/m 6,4 km/h (2 Bft) 100,00 %
09.12.2019 22:22 3,6 C 2,2 C 1,7 C 94 % 1018,6 hPa 0,0 l/m 0 min 0 min 0 W/m 3,2 km/h (1 Bft) 97,87 %
09.12.2019 22:24 3,6 C 2,2 C 1,7 C 94 % 1018,6 hPa 0,0 l/m 0 min 0 min 0 W/m 6,4 km/h (2 Bft) 97,87 %
09.12.2019 22:26 3,6 C 2,2 C 1,7 C 94 % 1018,6 hPa 0,0 l/m 0 min 0 min 0 W/m 6,4 km/h (2 Bft) 100,00 %
09.12.2019 22:28 3,6 C 2,2 C 1,7 C 94 % 1018,7 hPa 0,0 l/m 0 min 0 min 0 W/m 6,4 km/h (2 Bft) 100,00 %
09.12.2019 22:30 3,6 C 2,2 C 1,7 C 94 % 1018,8 hPa 0,0 l/m 0 min 0 min 0 W/m 6,4 km/h (2 Bft) 97,87 %
09.12.2019 22:32 3,6 C 2,2 C 1,7 C 94 % 1018,8 hPa 0,0 l/m 0 min 0 min 0 W/m 6,4 km/h (2 Bft) 100,00 %
09.12.2019 22:34 3,5 C 2,2 C 1,7 C 94 % 1018,8 hPa 0,0 l/m 0 min 0 min 0 W/m 6,4 km/h (2 Bft) 97,87 %
09.12.2019 22:36 3,5 C 2,2 C 1,7 C 94 % 1018,7 hPa 0,0 l/m 0 min 0 min 0 W/m 12,9 km/h (3 Bft) 97,87 %
09.12.2019 22:38 3,5 C 2,2 C 1,7 C 94 % 1018,8 hPa 0,0 l/m 0 min 0 min 0 W/m 6,4 km/h (2 Bft) 100,00 %
09.12.2019 22:40 3,5 C 2,2 C 1,7 C 94 % 1018,8 hPa 0,0 l/m 0 min 0 min 0 W/m 6,4 km/h (2 Bft) 78,72 %
09.12.2019 22:42 3,4 C 2,2 C 1,7 C 94 % 1018,9 hPa 0,0 l/m 0 min 0 min 0 W/m 6,4 km/h (2 Bft) 73,91 %
09.12.2019 22:44 3,4 C 2,2 C 1,7 C 94 % 1019,0 hPa 0,0 l/m 0 min 0 min 0 W/m 9,7 km/h (2 Bft) 97,87 %
09.12.2019 22:46 3,4 C 2,2 C 1,7 C 94 % 1019,0 hPa 0,0 l/m 0 min 0 min 0 W/m 9,7 km/h (2 Bft) 95,74 %
09.12.2019 22:48 3,4 C 2,2 C 1,7 C 94 % 1019,0 hPa 0,0 l/m 0 min 0 min 0 W/m 9,7 km/h (2 Bft) 95,74 %
09.12.2019 22:50 3,4 C 2,2 C 1,7 C 94 % 1019,2 hPa 0,0 l/m 0 min 0 min 0 W/m 6,4 km/h (2 Bft) 95,65 %
09.12.2019 22:52 3,4 C 2,2 C 1,7 C 94 % 1019,1 hPa 0,0 l/m 0 min 0 min 0 W/m 3,2 km/h (1 Bft) 97,87 %
09.12.2019 22:54 3,4 C 2,2 C 1,7 C 94 % 1019,2 hPa 0,0 l/m 0 min 0 min 0 W/m 3,2 km/h (1 Bft) 95,74 %
09.12.2019 22:56 3,4 C 2,2 C 2,2 C 95 % 1019,2 hPa 0,0 l/m 0 min 0 min 0 W/m 6,4 km/h (2 Bft) 95,74 %
09.12.2019 22:58 3,4 C 2,8 C 2,2 C 95 % 1019,4 hPa 0,0 l/m 0 min 0 min 0 W/m 3,2 km/h (1 Bft) 95,74 %
09.12.2019 23:00 3,4 C 2,8 C 2,2 C 95 % 1019,4 hPa 0,0 l/m 0 min 0 min 0 W/m 9,7 km/h (2 Bft) 95,74 %
09.12.2019 23:02 3,4 C 2,8 C 2,2 C 95 % 1019,5 hPa 0,0 l/m 0 min 0 min 0 W/m 9,7 km/h (2 Bft) 91,30 %
09.12.2019 23:04 3,4 C 2,8 C 2,2 C 95 % 1019,4 hPa 0,0 l/m 0 min 0 min 0 W/m 6,4 km/h (2 Bft) 93,62 %
09.12.2019 23:06 3,4 C 2,8 C 2,2 C 95 % 1019,5 hPa 0,0 l/m 0 min 0 min 0 W/m 3,2 km/h (1 Bft) 91,49 %
09.12.2019 23:08 3,4 C 2,8 C 2,2 C 95 % 1019,7 hPa 0,0 l/m 0 min 0 min 0 W/m 6,4 km/h (2 Bft) 93,62 %
09.12.2019 23:10 3,5 C 2,8 C 2,2 C 95 % 1019,7 hPa 0,0 l/m 0 min 0 min 0 W/m 9,7 km/h (2 Bft) 89,36 %
09.12.2019 23:12 3,5 C 2,8 C 2,2 C 95 % 1019,8 hPa 0,0 l/m 0 min 0 min 0 W/m 6,4 km/h (2 Bft) 93,62 %
09.12.2019 23:14 3,6 C 2,8 C 2,2 C 95 % 1019,8 hPa 0,0 l/m 0 min 0 min 0 W/m 3,2 km/h (1 Bft) 93,48 %
09.12.2019 23:16 3,6 C 2,8 C 2,2 C 95 % 1019,8 hPa 0,0 l/m 0 min 0 min 0 W/m 9,7 km/h (2 Bft) 93,62 %
09.12.2019 23:18 3,6 C 2,8 C 2,2 C 95 % 1019,8 hPa 0,0 l/m 0 min 0 min 0 W/m 6,4 km/h (2 Bft) 93,62 %
09.12.2019 23:20 3,6 C 2,8 C 2,2 C 95 % 1019,8 hPa 0,0 l/m 0 min 0 min 0 W/m 6,4 km/h (2 Bft) 91,49 %
09.12.2019 23:22 3,6 C 2,8 C 2,2 C 95 % 1019,9 hPa 0,0 l/m 0 min 0 min 0 W/m 6,4 km/h (2 Bft) 93,62 %
09.12.2019 23:24 3,6 C 2,8 C 2,2 C 95 % 1020,0 hPa 0,0 l/m 0 min 0 min 0 W/m 9,7 km/h (2 Bft) 93,48 %
09.12.2019 23:26 3,6 C 2,8 C 2,2 C 95 % 1020,0 hPa 0,0 l/m 0 min 0 min 0 W/m 3,2 km/h (1 Bft) 95,74 %
09.12.2019 23:28 3,6 C 2,8 C 2,2 C 95 % 1020,1 hPa 0,0 l/m 0 min 0 min 0 W/m 9,7 km/h (2 Bft) 93,62 %
09.12.2019 23:30 3,6 C 2,8 C 2,2 C 95 % 1020,1 hPa 0,0 l/m 0 min 0 min 0 W/m 3,2 km/h (1 Bft) 95,74 %
09.12.2019 23:32 3,6 C 2,8 C 2,2 C 95 % 1020,2 hPa 0,0 l/m 0 min 0 min 0 W/m 6,4 km/h (2 Bft) 91,49 %
09.12.2019 23:34 3,6 C 2,8 C 2,2 C 95 % 1020,2 hPa 0,0 l/m 0 min 0 min 0 W/m 9,7 km/h (2 Bft) 93,62 %
09.12.2019 23:36 3,6 C 2,2 C 2,2 C 95 % 1020,4 hPa 0,0 l/m 0 min 0 min 0 W/m 6,4 km/h (2 Bft) 95,65 %
09.12.2019 23:38 3,6 C 2,2 C 2,2 C 95 % 1020,3 hPa 0,0 l/m 0 min 0 min 0 W/m 6,4 km/h (2 Bft) 93,62 %
09.12.2019 23:40 3,6 C 2,2 C 2,2 C 95 % 1020,4 hPa 0,0 l/m 0 min 0 min 0 W/m 6,4 km/h (2 Bft) 95,74 %
09.12.2019 23:42 3,6 C 2,8 C 2,2 C 95 % 1020,5 hPa 0,0 l/m 0 min 0 min 0 W/m 6,4 km/h (2 Bft) 95,74 %
09.12.2019 23:44 3,6 C 2,8 C 2,2 C 95 % 1020,5 hPa 0,0 l/m 0 min 0 min 0 W/m 3,2 km/h (1 Bft) 95,74 %
09.12.2019 23:46 3,6 C 2,8 C 2,2 C 95 % 1020,5 hPa 0,0 l/m 0 min 0 min 0 W/m 3,2 km/h (1 Bft) 93,62 %
09.12.2019 23:48 3,6 C 2,8 C 2,2 C 95 % 1020,6 hPa 0,0 l/m 0 min 0 min 0 W/m 6,4 km/h (2 Bft) 97,87 %
09.12.2019 23:50 3,6 C 2,2 C 2,2 C 95 % 1020,7 hPa 0,0 l/m 0 min 0 min 0 W/m 3,2 km/h (1 Bft) 97,83 %
09.12.2019 23:52 3,5 C 2,2 C 2,2 C 95 % 1020,7 hPa 0,0 l/m 0 min 0 min 0 W/m 3,2 km/h (1 Bft) 97,87 %
09.12.2019 23:54 3,5 C 2,2 C 2,2 C 95 % 1020,7 hPa 0,0 l/m 0 min 0 min 0 W/m 3,2 km/h (1 Bft) 95,74 %
09.12.2019 23:56 3,5 C 2,2 C 1,7 C 95 % 1020,7 hPa 0,0 l/m 0 min 0 min 0 W/m 3,2 km/h (1 Bft) 97,87 %
09.12.2019 23:58 3,4 C 2,2 C 1,7 C 95 % 1020,8 hPa 0,0 l/m 0 min 0 min 0 W/m 6,4 km/h (2 Bft) 97,87 %
_ Min-Zeit 22:42 21:48 22:10 04:32 08:28 - - - - 15:00 05:34
Minimum _ 3,4 C 2,2 C 1,7 C 81 % 994,5 hPa - - - - 0,0 km/h (0 Bft) 48,72 %
_ Max-Zeit 02:44 13:50 02:08 11:44 23:58 09:26 12:42 18:08 13:52 09:20 00:00
Maximum _ 7,8 C 9,4 C 6,7 C 98 % 1020,8 hPa 0,4 l/m 2 min 4 min 273 W/m 77,2 km/h
S (9 Bft)
100,00 %
Durchschnitt _ 6,5 C 5,5 C 5,0 C 92 % 1003,2 hPa #8,4 l/m #40 min. #6:44 h 59 W/m 18,3 km/h (3 Bft) 97,30 %
© 2019 W. Hausmann